GFSGBSN_500_rhum_000.txt.gz
RH
50 34 14 13 35 48 51 42 16 22 20 16 13 12 12 11 10 10 11 10 9 9 8 7 7 6 7 7 12 10 23 27 22 24 24 26 24 19 16 14 15 12 12 17 18 14 12
62 55 43 28 14 28 46 50 42 18 21 19 17 14 13 12 11 10 9 10 8 8 7 7 6 6 6 7 7 8 17 32 37 29 29 28 30 22 15 14 14 12 13 19 20 21 17
35 48 58 51 49 15 22 43 44 44 25 20 20 18 15 14 13 11 9 8 8 7 6 6 6 6 7 7 8 10 15 29 29 39 36 41 41 33 27 22 21 16 22 26 24 26 27
27 22 29 52 51 55 20 15 40 40 43 35 16 21 20 18 15 13 11 9 8 7 7 6 6 5 6 8 8 10 12 29 27 26 40 50 54 49 47 41 35 32 30 24 23 22 24
12 9 10 14 35 51 53 30 16 28 35 38 40 18 18 21 20 17 17 15 12 9 8 8 8 8 7 11 11 14 15 24 28 31 33 40 55 54 50 44 40 36 30 26 24 29 28
8 8 9 7 8 11 38 50 34 18 18 36 30 41 26 12 20 21 20 19 18 16 13 12 11 10 10 12 14 16 20 24 25 31 38 43 40 45 38 38 26 31 33 38 34 42 39
6 6 8 8 8 7 9 12 42 43 22 18 22 32 37 34 20 11 18 20 20 19 18 14 13 14 12 11 13 16 22 27 30 30 46 59 43 32 46 61 61 52 42 38 45 48 50
4 3 3 3 3 6 6 7 9 11 27 37 29 17 27 34 38 30 12 8 18 19 18 17 15 15 15 13 17 25 27 31 35 38 38 44 47 56 64 64 58 51 42 36 36 48 48
4 3 2 2 2 3 3 4 5 6 7 9 24 25 14 18 34 41 36 28 8 9 17 17 17 19 23 18 19 28 28 31 45 47 58 60 58 59 60 63 58 50 44 46 44 60 44
3 2 2 2 2 2 2 2 2 2 3 4 5 8 12 8 14 32 46 40 25 6 8 12 17 26 26 25 22 26 27 40 44 66 71 59 55 55 56 55 69 44 63 69 69 68 48
2 2 2 2 2 2 2 1 1 4 92 40 9 3 3 8 8 22 42 46 28 6 7 8 14 30 32 26 23 25 36 62 72 76 72 66 64 68 52 71 91 60 94 85 80 77 71
2 2 3 3 3 3 3 2 1 8 61 94 100 93 12 4 8 22 39 47 32 37 29 16 22 32 29 25 22 30 69 78 62 47 44 70 74 81 84 85 77 90 95 99 87 89 66
3 4 5 3 3 3 3 2 2 2 98 100 100 94 61 13 35 27 38 40 33 46 30 21 27 29 24 26 39 73 73 42 38 37 45 81 86 84 100 99 98 100 99 100 98 81 56
5 7 4 3 2 3 4 2 2 15 100 100 97 97 100 51 47 43 44 32 42 43 17 17 25 23 25 53 82 59 48 63 53 46 83 96 78 100 97 98 100 100 100 100 96 85 72
8 6 3 1 2 28 45 18 2 23 100 100 98 86 80 67 60 59 38 36 49 36 18 21 25 24 49 92 74 56 81 84 72 61 98 92 100 100 98 100 100 93 98 87 100 98 86
9 4 1 18 84 98 98 25 4 63 92 99 96 96 82 95 66 52 36 52 54 27 20 27 25 30 90 69 39 52 80 83 91 80 100 87 63 76 93 90 88 75 81 100 93 85 74
8 3 3 30 100 81 78 12 7 60 100 84 89 100 99 97 70 45 46 68 48 29 22 22 31 72 90 34 41 38 55 74 84 74 62 60 51 62 76 86 86 67 76 78 75 69 73
7 3 4 47 45 59 80 34 97 59 100 100 100 100 98 85 54 45 81 57 21 14 20 27 44 91 48 41 67 33 27 38 58 44 53 67 76 95 99 100 100 79 66 65 66 50 64
7 4 4 11 24 15 100 43 87 100 99 99 95 100 97 79 54 55 90 23 13 17 23 32 79 85 32 50 68 65 40 59 75 74 85 84 96 100 100 76 55 77 44 48 57 45 93
5 4 4 7 70 96 86 99 100 100 100 100 100 98 99 66 72 92 78 19 19 23 30 35 89 73 26 47 74 98 99 98 96 100 98 99 100 99 98 100 81 46 23 32 39 36 98
4 4 4 5 99 71 100 100 100 100 96 99 100 98 71 48 64 91 44 23 25 25 35 56 98 74 25 42 56 68 80 94 99 99 99 100 100 99 99 99 100 90 92 88 68 79 96
3 6 6 10 84 75 97 84 83 88 100 100 100 98 97 98 76 89 30 30 40 50 40 73 100 86 31 35 47 58 84 98 100 100 99 99 100 99 93 95 87 66 81 92 96 96 96
2 20 12 48 64 87 91 92 94 100 100 100 100 100 98 87 98 68 36 34 36 44 52 89 100 92 58 30 39 50 77 78 93 95 100 99 98 98 92 97 96 94 98 97 98 98 97
2 23 21 71 79 98 86 93 100 100 100 100 95 98 100 100 94 59 43 29 53 60 63 82 99 100 57 26 32 49 62 67 71 98 94 97 98 98 98 98 98 79 97 96 99 95 97
2 12 55 61 86 100 87 82 95 100 100 100 98 81 66 85 96 51 32 37 52 53 41 81 100 98 78 35 24 29 36 41 61 76 91 85 93 85 81 76 73 73 89 92 66 87 92
3 4 42 61 62 97 79 82 93 93 95 94 100 100 86 95 62 39 33 42 44 57 46 90 96 100 93 59 32 34 30 32 52 64 62 72 70 80 70 70 71 78 80 80 84 83 75
3 3 33 47 56 52 100 100 100 100 100 100 100 99 89 96 94 43 45 44 49 58 74 98 97 100 100 77 61 41 49 37 38 46 46 49 54 58 58 71 74 82 90 88 89 87 74
2 2 23 46 75 78 83 94 100 100 100 92 92 97 100 86 51 53 47 45 63 71 98 98 95 94 99 88 87 72 57 55 48 49 41 41 44 54 57 74 73 78 73 75 76 76 67
3 2 17 50 74 85 86 97 100 89 94 100 95 100 92 54 50 78 44 74 71 79 95 95 98 98 100 96 78 63 74 76 81 77 68 64 57 70 67 72 68 71 70 75 82 80 83

GFSGBSN_500_rhum_003.txt.gz
RH
59 49 43 52 63 56 19 16 38 49 44 19 23 20 15 13 13 12 14 15 15 14 12 11 11 9 8 8 8 6 8 10 12 15 16 15 19 19 19 22 18 13 14 13 16 20 20
45 42 44 42 36 37 59 20 18 38 52 44 20 23 20 16 14 13 11 12 13 13 12 11 11 9 8 7 7 7 8 8 9 10 14 16 17 16 27 26 23 18 13 13 12 14 16
10 9 9 9 10 15 26 77 31 15 35 50 46 20 23 21 17 15 14 12 11 12 12 10 10 8 7 6 6 7 7 8 9 12 12 18 20 22 30 36 28 24 18 13 12 12 15
9 8 7 8 8 8 10 17 63 45 20 36 45 46 22 24 23 19 16 15 14 11 11 11 10 8 7 6 6 7 7 7 8 11 13 16 20 21 24 46 40 31 25 18 16 20 22
6 6 6 6 5 6 7 8 13 38 53 29 33 42 44 27 23 25 22 18 16 14 12 10 10 10 9 9 8 9 10 9 9 11 17 18 19 22 25 34 48 40 35 36 23 30 28
8 8 8 7 6 5 4 5 8 9 29 60 31 24 37 38 33 18 25 25 21 18 16 15 14 12 12 12 12 11 10 10 10 10 11 18 21 20 21 30 28 51 50 48 43 45 47
10 8 7 5 4 4 4 4 4 8 8 33 68 35 19 34 33 38 20 19 25 23 21 19 18 16 16 15 15 14 14 14 14 15 18 21 20 19 31 43 38 30 42 42 41 39 38
8 7 5 5 4 4 3 3 3 4 6 7 30 50 37 18 32 31 36 26 18 19 22 22 21 20 19 18 18 18 19 19 18 19 23 22 20 29 35 36 44 46 37 32 28 29 32
8 6 6 4 3 2 2 2 2 3 3 2 3 20 27 35 20 24 33 38 34 25 15 15 19 20 20 19 19 23 26 24 23 22 22 21 20 22 26 37 43 46 51 50 44 53 52
8 7 4 2 2 2 2 2 2 2 1 0 0 3 9 10 28 23 18 33 38 40 35 22 11 10 15 16 16 21 31 30 27 24 22 19 19 35 49 48 62 58 66 68 64 62 53
8 5 2 2 2 3 3 3 3 2 1 0 74 18 10 7 14 16 27 22 27 42 40 35 30 19 10 10 14 22 31 29 24 21 23 28 33 49 47 53 67 52 68 64 62 61 53
6 3 3 4 6 5 5 4 5 4 3 12 72 72 86 69 9 7 17 19 22 32 33 39 33 29 23 18 18 24 28 27 23 35 55 64 62 54 50 54 60 62 65 69 72 72 42
3 3 5 6 4 2 3 7 6 5 4 17 100 99 100 100 72 16 7 22 26 19 26 30 33 34 40 33 22 26 28 27 61 70 59 53 46 39 35 33 35 53 81 97 100 82 47
3 5 7 4 2 3 46 52 13 6 4 2 100 83 85 100 99 81 12 18 18 18 24 30 33 36 28 17 25 28 39 73 22 27 66 71 62 57 48 69 99 100 100 100 100 91 86
4 6 7 4 7 58 76 47 25 5 4 92 100 100 100 100 100 92 31 14 20 26 26 28 32 38 32 27 28 50 62 18 23 32 90 89 72 70 93 100 100 96 93 84 100 100 100
6 8 6 22 47 100 100 100 100 83 10 100 100 100 100 100 96 74 31 19 34 33 28 31 41 34 26 28 42 62 18 28 25 32 72 86 77 74 83 98 85 81 90 100 100 97 100
6 8 6 55 100 100 100 100 100 92 43 77 100 100 100 100 96 88 33 34 40 32 32 41 41 23 23 29 70 39 31 28 40 39 46 54 74 73 81 60 73 92 92 93 90 87 71
6 6 6 22 75 99 92 60 100 99 98 100 100 100 100 100 84 57 48 56 40 33 43 42 29 20 24 59 65 39 50 37 65 85 79 77 61 52 71 96 81 95 100 99 94 59 56
5 5 5 10 24 61 97 39 79 76 94 100 100 100 100 96 69 83 78 52 37 50 47 18 12 24 43 66 31 55 83 98 100 91 94 98 91 99 99 96 85 62 83 63 57 81 46
4 4 5 11 16 44 100 56 100 99 97 100 100 100 100 95 88 99 68 47 63 52 8 9 25 28 59 67 31 57 75 68 87 99 100 100 100 100 100 100 95 76 51 38 48 45 30
4 3 7 13 17 93 85 100 99 96 100 100 87 78 81 52 76 67 55 70 84 20 22 27 30 52 77 49 42 63 70 95 97 100 99 99 100 100 100 100 100 50 28 23 36 33 51
4 3 11 9 55 98 72 88 80 100 100 97 96 79 94 100 100 74 68 96 50 44 49 42 41 63 78 41 40 53 87 98 100 99 99 100 99 100 99 100 86 27 19 40 75 84 96
4 2 17 9 64 99 95 99 99 100 97 100 99 100 100 79 100 73 81 100 54 51 64 74 55 71 96 53 30 51 76 85 98 98 100 98 100 98 98 95 82 57 79 92 94 95 98
4 2 18 9 53 92 99 97 99 100 100 100 100 100 99 100 81 81 100 96 45 51 64 64 63 80 98 66 27 40 84 67 93 99 100 98 98 98 99 100 96 97 100 97 97 100 96
3 2 20 21 65 77 92 90 90 98 100 100 100 100 98 90 98 99 100 68 53 56 48 76 88 78 96 78 27 33 61 55 77 82 96 90 97 96 99 90 96 97 91 97 93 96 96
3 2 15 38 58 71 90 89 84 95 100 100 100 100 100 100 99 100 100 57 53 61 59 80 60 94 94 82 56 21 31 38 54 68 75 83 84 86 84 81 87 98 99 91 74 85 88
3 2 4 28 43 56 78 89 83 100 100 100 100 100 100 100 99 96 97 52 44 59 73 85 95 94 100 94 71 18 20 29 50 63 59 66 72 69 74 75 70 68 83 88 92 97 90
3 2 2 22 35 52 68 72 86 100 100 100 100 99 92 88 95 99 77 50 57 74 73 78 96 94 93 98 85 44 15 27 40 54 46 45 50 59 66 81 79 71 71 72 71 66 70
3 2 2 18 31 46 59 59 70 92 100 93 91 100 100 100 98 100 87 52 69 74 68 92 99 98 88 95 96 64 41 54 38 47 48 41 43 62 59 58 50 77 85 85 79 78 78

GFSGBSN_500_rhum_006.txt.gz
RH
12 12 12 11 10 10 17 29 38 49 19 21 45 47 22 25 19 17 17 19 21 19 16 13 12 13 12 12 10 9 7 7 8 9 10 11 11 12 12 12 12 10 16 18 14 14 15
16 15 12 8 7 7 7 9 30 21 49 19 29 46 42 24 22 16 15 15 18 19 19 17 15 14 14 13 9 9 8 8 8 8 8 8 8 10 13 15 14 15 16 16 21 14 15
11 10 8 7 6 6 5 5 6 16 15 49 24 32 51 34 24 20 17 15 13 15 16 16 16 15 14 12 9 9 8 7 7 7 7 7 8 10 12 16 13 17 17 19 21 24 15
9 8 8 8 8 8 6 6 5 5 8 14 51 34 32 51 29 23 21 18 16 12 13 14 14 14 13 10 8 7 6 6 7 7 7 7 7 7 8 13 12 14 16 21 28 24 21
12 11 10 10 9 9 7 6 5 5 5 7 23 52 37 37 48 30 23 23 19 16 14 12 12 13 12 9 8 7 8 8 8 9 9 8 8 9 10 12 16 17 17 20 31 34 26
16 15 14 13 11 9 8 6 5 4 4 4 7 31 51 41 43 44 37 22 24 21 17 16 13 11 10 9 9 10 10 11 11 10 10 9 9 9 9 13 14 18 15 18 18 32 39
18 16 14 11 6 4 3 3 3 3 4 4 4 7 51 59 32 42 42 43 21 25 24 20 15 13 12 11 11 13 13 14 14 14 14 14 14 13 17 19 18 15 15 15 23 27 30
18 14 9 6 4 3 3 2 2 2 2 3 3 4 13 64 60 24 39 41 40 20 24 26 22 18 17 16 16 16 17 16 17 17 19 20 18 19 18 18 18 18 17 17 21 35 33
18 11 8 6 3 2 2 2 2 2 2 2 3 4 8 36 47 59 21 37 38 39 26 20 24 23 22 20 19 19 19 20 20 20 22 26 26 26 24 22 20 19 18 19 25 37 36
13 10 8 4 2 3 3 4 5 5 3 2 2 3 4 6 46 47 36 24 36 36 42 33 20 19 21 21 20 20 19 18 17 18 23 24 26 26 26 25 25 23 24 25 23 27 28
13 11 6 3 4 4 4 3 3 4 6 3 2 3 3 6 90 73 47 28 29 35 39 40 37 29 22 16 12 12 12 11 12 16 22 25 26 29 28 28 33 30 31 35 33 37 38
14 11 5 4 4 4 4 6 17 4 4 5 3 3 72 97 100 89 86 42 30 28 30 32 34 38 36 33 30 27 20 16 21 25 28 31 37 38 43 61 68 71 65 61 60 59 43
14 8 5 4 5 5 4 35 53 95 7 5 5 3 76 100 100 97 99 40 38 29 27 26 24 26 30 31 31 30 34 35 24 31 36 36 23 17 19 45 62 60 62 74 78 68 47
12 6 5 5 7 34 71 87 91 89 20 6 6 5 14 42 100 98 100 83 38 33 26 27 25 22 22 29 34 37 30 33 37 35 27 20 19 20 37 75 92 99 100 99 71 63 52
12 7 6 4 21 43 100 99 100 100 88 8 6 100 100 100 92 82 93 81 23 18 23 24 21 17 20 32 34 39 42 34 33 50 21 27 34 39 40 86 100 100 100 97 100 100 97
12 7 6 4 8 54 88 77 92 100 100 23 81 100 100 93 100 91 98 61 36 12 13 22 20 21 26 29 40 39 33 34 60 40 29 56 54 49 47 68 68 74 96 92 94 95 86
12 6 6 3 5 64 89 66 98 99 100 18 80 100 100 100 100 100 90 58 36 12 14 18 18 18 29 41 41 32 27 64 38 46 56 81 58 62 63 51 88 100 84 92 100 99 80
10 6 5 3 6 33 61 64 100 87 100 13 61 99 100 98 100 100 91 61 75 28 25 21 20 24 40 41 33 23 66 39 70 93 70 80 69 83 89 90 74 64 60 65 58 51 66
9 5 4 3 14 20 51 83 92 100 94 49 100 100 87 100 99 75 68 95 68 36 30 27 27 37 39 32 23 59 38 57 72 72 72 98 91 96 99 100 100 99 100 98 97 86 54
8 5 3 4 16 18 37 65 87 100 97 86 100 100 100 100 82 100 100 98 54 42 39 36 38 47 32 18 56 47 41 69 87 92 97 100 100 100 100 100 100 100 100 100 91 56 35
8 4 3 15 28 19 47 96 94 100 86 100 100 100 72 60 77 98 100 89 60 50 43 44 49 20 23 45 70 35 56 86 99 100 100 98 99 100 100 100 100 100 100 29 18 30 44
7 3 3 25 61 34 57 98 100 85 68 90 100 92 100 100 100 99 99 74 56 56 60 39 32 31 37 80 61 40 66 94 100 98 94 99 98 100 98 99 82 50 27 20 22 36 78
6 3 3 28 77 52 66 96 100 93 97 100 99 97 90 100 93 84 68 73 100 88 49 32 55 42 75 78 57 42 68 93 99 97 97 100 98 97 98 99 78 33 56 91 80 88 92
8 2 2 27 91 72 17 73 84 90 96 98 83 100 94 97 90 91 100 100 100 84 48 54 74 61 76 81 45 42 72 87 98 99 98 100 98 99 97 97 100 100 98 99 97 100 95
7 3 2 9 35 86 36 77 78 80 100 99 90 98 89 94 99 86 100 100 94 65 52 56 77 90 86 84 49 28 76 78 89 89 100 98 100 90 99 95 98 99 85 66 78 86 95
7 3 2 14 31 70 61 71 98 95 99 100 100 100 100 100 98 100 97 100 92 56 38 73 95 83 79 87 74 33 70 69 55 68 82 95 84 87 94 95 78 97 95 81 70 85 90
12 5 3 3 23 48 61 71 94 96 100 100 100 100 100 93 95 94 98 100 92 56 59 90 90 90 78 89 84 71 34 44 45 64 65 65 75 74 72 72 71 72 74 74 74 79 84
14 7 3 2 11 29 49 78 96 93 97 100 99 100 97 98 98 97 100 100 92 54 60 99 93 94 90 81 88 94 62 22 38 62 59 53 64 67 60 56 59 68 73 77 74 72 74
14 8 2 2 2 20 40 51 87 76 85 87 96 94 100 100 100 100 99 99 94 67 100 89 96 100 100 97 92 95 83 39 31 51 56 47 44 55 67 57 48 51 58 58 56 66 72

GFSGBSN_500_rhum_009.txt.gz
RH
16 15 13 10 9 9 8 6 6 6 10 31 32 43 18 31 46 28 24 22 20 20 22 20 16 12 12 13 15 14 12 11 8 7 8 7 9 9 10 12 11 10 12 12 14 16 14
16 14 11 10 9 8 8 8 8 8 6 6 27 26 44 18 48 40 24 24 18 18 22 23 23 17 13 16 14 16 13 11 10 8 8 8 9 9 10 12 11 12 13 14 14 13 14
16 16 15 16 16 14 12 10 9 8 7 7 6 14 26 49 31 50 26 25 20 16 18 21 22 21 20 17 16 17 14 12 10 8 7 7 7 8 9 10 10 10 11 13 18 19 13
21 20 19 19 18 16 14 13 13 11 9 7 6 6 10 46 40 40 49 24 24 17 15 16 20 20 20 17 17 16 14 13 10 8 8 7 7 7 7 7 7 9 10 13 16 20 19
24 22 20 17 15 12 10 8 7 5 6 7 7 5 5 14 51 41 46 43 24 21 16 14 15 16 16 18 17 16 14 10 9 8 7 7 7 7 7 8 8 12 10 12 15 17 18
21 19 18 16 13 11 10 8 6 4 3 3 3 6 4 5 39 54 41 50 34 23 20 17 15 13 14 14 14 10 8 7 7 7 8 8 8 8 8 13 11 9 7 8 10 14 14
22 20 19 16 13 10 7 4 3 2 2 2 3 3 4 4 8 64 60 37 50 26 24 23 18 15 12 13 12 10 9 10 10 12 12 10 9 11 14 14 13 12 12 11 12 15 16
27 24 21 17 12 8 5 3 2 3 3 3 3 3 3 4 7 23 62 54 42 46 24 25 22 19 16 12 11 10 10 13 15 14 14 14 14 17 19 19 20 19 18 17 17 17 17
32 27 22 16 12 7 4 3 3 3 3 5 3 2 3 4 7 40 52 59 46 46 43 24 25 24 20 16 13 14 15 16 16 17 18 18 19 19 20 21 23 25 24 24 23 22 21
33 29 22 17 12 5 4 3 4 5 9 5 5 3 3 4 4 11 22 56 59 36 47 42 24 23 25 24 20 19 18 18 18 19 19 18 18 16 16 18 25 23 24 26 25 24 21
33 27 21 16 7 5 3 8 10 28 41 12 6 4 4 3 4 84 77 56 48 44 44 46 41 28 21 23 24 24 22 21 20 18 15 12 12 12 16 27 33 32 32 32 39 34 27
30 24 21 12 6 4 6 25 51 64 97 73 5 6 4 3 68 100 100 94 98 84 30 40 43 43 37 26 19 19 18 17 18 20 19 19 26 31 32 35 21 15 19 24 16 23 44
29 23 21 9 5 3 19 43 77 98 100 100 18 7 5 4 63 100 100 100 100 90 61 30 35 39 43 40 37 36 33 32 32 30 29 30 32 36 38 21 24 37 29 20 21 37 42
27 24 19 6 4 3 33 42 100 100 98 100 67 6 5 61 100 100 100 100 100 91 77 34 29 28 29 29 31 34 31 30 32 34 34 36 35 41 36 29 44 25 30 26 90 100 97
23 23 15 4 3 4 33 55 90 98 100 100 71 7 5 50 96 100 100 100 92 89 64 50 28 24 25 23 22 22 29 34 34 36 36 32 35 38 34 51 52 31 29 48 96 100 100
21 24 10 3 3 10 24 66 98 100 100 100 74 6 4 90 82 100 99 93 100 88 59 54 31 27 26 23 21 28 27 28 36 33 30 37 36 44 61 69 64 41 37 40 55 95 98
18 20 5 3 14 16 20 69 94 98 100 91 48 7 88 100 100 100 99 100 77 71 56 47 41 34 30 23 26 26 33 35 31 28 44 55 55 65 75 73 70 53 54 77 64 79 100
20 13 3 9 11 12 25 55 79 100 100 99 30 9 99 100 100 100 100 90 77 58 57 36 22 22 23 25 25 35 37 34 29 47 64 82 67 53 50 73 91 94 99 100 98 92 63
21 7 3 11 8 9 15 46 73 100 100 74 98 89 66 82 82 99 62 87 92 90 50 21 14 14 20 28 30 38 34 32 47 81 85 79 65 68 65 86 100 100 100 100 100 100 82
20 8 3 13 29 39 42 67 97 100 100 73 100 100 100 70 94 98 91 100 96 82 54 17 12 16 30 33 36 33 26 49 88 76 61 64 73 84 84 97 100 100 100 100 100 82 95
22 10 4 14 26 76 97 100 92 100 100 97 100 85 85 88 100 100 98 100 100 88 65 25 25 34 36 40 34 22 46 77 90 74 89 74 85 81 93 100 97 92 58 46 39 40 54
21 12 5 10 35 72 92 100 78 97 98 86 100 68 69 89 99 94 73 82 89 87 53 49 46 39 44 35 24 36 45 77 88 94 93 88 96 93 100 97 88 68 60 27 26 35 66
19 14 7 3 44 52 70 71 58 71 67 86 92 72 68 80 100 100 99 100 85 63 62 53 49 46 34 19 22 59 40 76 100 92 90 92 89 84 93 99 99 96 100 83 79 94 97
21 15 8 2 37 26 35 56 65 78 91 92 95 94 99 99 92 100 93 84 66 79 70 58 39 33 38 30 55 62 56 77 94 83 96 96 96 99 98 97 100 100 84 100 100 82 86
22 16 8 3 13 32 24 47 60 77 83 100 100 97 97 99 91 79 82 99 100 99 62 42 41 56 51 54 79 62 73 75 93 89 74 86 94 95 94 98 100 71 78 89 84 77 77
21 17 9 4 2 25 21 42 50 80 94 92 78 100 100 100 96 82 78 98 100 90 47 46 54 68 75 76 84 61 69 74 70 73 66 67 89 90 100 95 100 81 74 84 87 95 98
21 19 11 5 1 27 29 59 70 72 90 81 92 100 98 100 98 90 99 100 100 77 73 54 54 76 84 87 92 76 46 72 61 57 64 53 55 69 74 97 95 97 100 95 83 86 95
21 19 13 6 1 7 32 46 58 65 67 88 88 100 96 90 100 95 93 93 99 76 70 69 65 78 94 94 91 96 70 47 56 43 64 58 46 45 55 66 80 95 90 96 89 95 98
23 20 15 7 3 1 29 44 47 57 73 76 84 90 84 96 91 88 77 87 100 72 57 63 69 91 97 98 95 100 84 41 41 31 51 61 42 38 41 62 65 66 74 83 82 83 80

GFSGBSN_500_rhum_012.txt.gz
RH
30 26 23 20 17 18 19 17 14 12 9 8 8 6 14 29 40 41 22 46 34 23 21 20 17 15 14 14 12 13 11 12 13 9 15 12 8 6 6 8 8 8 12 12 13 14 12
30 26 26 24 23 24 23 21 20 19 16 13 10 8 7 7 29 33 31 39 40 24 24 20 18 17 17 14 17 14 14 14 16 14 13 12 7 6 8 9 8 9 11 13 14 14 12
25 25 25 25 22 20 18 18 16 14 13 11 13 12 8 8 8 22 42 25 47 25 26 20 19 20 23 21 21 20 19 20 16 15 12 10 8 7 10 10 9 9 12 12 16 16 12
21 23 25 25 25 24 20 18 15 13 12 10 10 8 10 8 6 9 22 43 42 36 26 22 18 20 23 23 26 30 25 21 19 16 14 10 10 10 11 11 12 10 10 12 17 14 12
22 21 19 19 16 16 15 13 10 10 9 8 8 8 7 7 7 6 8 53 41 56 26 25 18 17 20 22 23 28 32 25 19 15 12 11 10 10 12 12 10 11 9 10 12 12 10
22 22 22 21 17 14 12 11 11 10 8 6 5 5 5 5 6 5 5 34 53 70 36 26 24 17 17 19 20 24 30 27 20 15 12 10 9 8 12 12 11 9 7 7 9 10 10
20 24 24 23 20 19 18 18 12 5 4 4 3 3 3 4 5 22 73 10 58 56 50 24 27 20 17 17 16 19 23 24 19 15 12 9 8 11 13 12 11 11 10 9 10 12 10
22 24 23 22 21 22 22 9 5 5 4 5 4 3 3 3 4 55 81 36 51 81 55 30 27 24 17 15 15 15 14 13 10 9 8 9 11 12 13 14 14 14 14 14 14 14 14
21 23 21 21 23 23 6 4 4 7 17 39 24 4 4 3 4 72 65 15 55 69 54 50 24 26 22 17 14 14 14 12 13 12 13 13 13 17 16 17 17 18 17 18 18 17 16
19 20 16 19 21 5 3 4 5 26 49 92 85 11 5 4 4 16 63 100 61 97 67 52 33 26 26 22 18 14 12 12 13 14 15 16 17 18 19 18 17 15 16 14 14 14 15
19 18 14 14 9 3 3 3 36 90 99 100 100 35 6 5 4 24 100 100 97 99 100 63 47 28 26 27 23 19 16 15 15 16 18 17 18 18 16 14 12 12 14 20 28 31 27
17 16 12 9 5 5 5 6 82 97 87 90 100 100 11 6 6 100 100 100 100 94 99 81 50 44 27 25 27 25 23 21 21 21 21 18 13 14 16 20 26 27 30 36 34 20 18
16 16 11 6 4 10 15 14 58 91 100 100 100 96 10 5 6 100 100 100 100 99 94 88 44 46 42 29 24 24 24 24 22 18 16 24 28 28 29 28 32 36 38 38 30 32 32
17 16 10 5 4 11 13 14 73 85 97 94 81 48 6 5 47 100 99 100 99 62 73 65 40 36 45 44 37 32 24 20 23 31 32 31 30 30 36 40 41 42 40 40 58 50 38
18 17 9 5 5 9 9 36 70 92 100 97 97 74 6 4 61 96 78 100 86 82 98 95 62 29 38 41 42 40 38 36 35 34 33 29 31 34 35 38 41 42 52 70 68 60 61
18 17 10 4 7 10 8 55 71 94 97 100 100 24 5 7 63 96 100 100 99 100 100 100 84 33 32 33 31 27 26 27 29 29 29 31 33 34 38 49 61 67 62 81 99 98 97
19 17 11 5 21 11 6 63 71 95 100 100 100 8 6 98 100 100 100 100 100 100 100 94 93 37 28 28 27 27 28 28 28 28 34 30 29 38 57 61 56 52 75 78 99 100 100
18 18 12 6 35 42 40 72 99 100 98 96 43 11 33 100 100 95 100 100 100 100 94 87 87 55 32 30 30 30 25 26 30 33 30 36 43 53 51 57 55 68 88 100 100 100 93
20 17 14 7 35 75 63 93 100 94 98 98 16 6 95 89 99 98 100 100 96 97 81 75 76 70 48 35 33 30 27 28 37 30 39 58 54 47 51 70 81 66 95 99 97 86 60
22 16 16 6 10 80 95 87 96 100 100 92 14 21 99 86 94 100 98 97 94 96 75 64 50 61 46 35 29 26 27 33 29 40 68 55 55 53 71 87 79 69 76 40 49 25 71
24 16 16 6 4 48 97 90 69 94 100 98 64 69 70 59 100 100 94 97 91 98 87 55 37 36 28 21 25 26 33 27 38 75 71 65 66 73 78 87 85 88 82 86 50 26 37
27 18 16 8 3 33 86 92 46 69 84 76 60 78 73 63 85 69 81 100 100 100 95 70 36 27 22 31 30 34 32 35 76 82 74 82 87 91 91 97 96 98 94 83 79 82 63
31 20 17 11 3 22 45 73 43 54 73 76 50 41 42 36 71 89 99 100 99 94 84 66 42 30 38 37 33 34 23 48 76 85 90 98 98 92 91 98 97 83 75 69 75 82 88
34 24 19 15 3 17 39 55 54 52 62 51 60 71 81 93 100 100 95 86 85 78 66 47 46 42 42 39 34 26 35 58 90 90 94 100 98 96 98 91 87 80 67 64 65 80 73
38 28 22 18 8 6 26 22 51 62 62 55 50 53 68 96 92 72 68 67 78 64 59 56 52 48 46 38 29 34 62 80 85 87 94 88 92 84 97 98 98 92 88 79 83 93 96
41 33 28 19 13 3 19 25 34 42 47 60 69 82 85 93 89 91 88 75 75 74 60 51 54 51 48 32 36 62 64 85 76 76 74 71 73 79 83 98 99 96 92 90 86 96 100
43 38 32 18 18 10 6 23 22 31 58 92 78 82 87 70 69 76 88 100 100 88 60 70 73 73 66 57 56 68 62 78 74 64 67 59 55 70 70 83 97 99 100 93 97 96 95
49 42 32 20 18 16 6 12 27 28 39 57 80 73 70 73 90 87 92 98 100 84 61 66 76 79 81 72 74 80 61 56 66 56 57 59 62 51 64 75 78 86 98 100 91 85 90
49 42 31 20 19 18 12 3 21 27 34 39 64 76 83 92 83 88 93 83 99 84 72 68 79 76 78 84 93 84 67 44 61 56 40 52 53 50 52 62 71 81 96 99 96 92 90

GFSGBSN_500_rhum_015.txt.gz
RH
12 13 15 17 21 23 25 25 25 24 23 21 19 18 13 8 7 8 31 47 73 67 48 39 20 24 24 21 21 19 17 15 11 8 8 8 8 7 12 13 10 7 9 8 10 11 12
12 11 14 16 18 20 24 24 26 24 22 20 20 18 17 15 9 7 9 25 52 58 78 40 24 22 23 21 19 18 16 15 12 10 9 9 8 8 13 12 10 7 8 9 10 11 11
10 11 13 15 16 17 17 15 15 17 19 20 19 17 15 15 14 9 7 6 22 47 29 43 26 25 21 20 18 18 17 14 13 14 14 17 12 15 15 11 9 8 11 11 11 12 11
10 10 12 14 14 11 7 5 5 4 6 8 12 14 16 14 12 11 8 6 7 28 34 47 27 28 22 21 21 19 16 16 16 16 16 16 22 17 14 10 12 11 10 12 11 13 11
12 11 12 13 13 11 10 9 8 7 4 4 4 4 8 11 13 11 9 8 5 9 46 45 30 30 22 22 23 24 22 18 19 20 19 19 20 16 14 13 12 14 14 15 14 14 10
13 11 12 13 14 14 12 9 4 4 4 3 3 3 3 4 6 10 10 8 6 7 50 42 39 29 23 21 23 24 24 24 22 25 24 25 25 21 17 14 16 17 16 18 18 16 13
14 12 12 13 15 15 9 4 5 7 4 3 3 3 3 3 3 4 8 7 99 40 95 51 47 28 29 23 22 22 23 25 26 29 28 30 24 28 24 17 14 15 16 16 16 16 12
15 14 12 14 17 12 3 6 11 8 6 10 16 28 18 5 3 4 5 28 98 26 99 91 87 29 29 24 22 20 20 22 27 31 30 30 31 31 20 15 14 13 14 13 13 13 11
20 18 12 14 15 8 4 10 13 12 41 66 83 94 72 8 4 4 4 72 98 61 100 82 95 33 29 25 20 18 17 20 27 29 29 27 24 21 20 16 15 15 13 13 13 12 13
21 20 14 13 13 5 9 13 13 42 67 85 99 100 100 13 5 4 74 100 100 66 61 94 92 43 28 28 21 16 16 18 16 19 16 15 19 20 18 18 18 16 16 16 16 15 14
23 23 16 14 11 5 14 12 14 50 84 100 100 100 100 43 5 4 100 100 100 92 100 100 91 55 27 28 22 17 16 17 17 15 18 16 18 19 18 18 18 17 17 15 12 11 12
25 25 16 13 9 8 18 6 16 77 100 100 100 98 98 44 6 19 100 100 100 100 93 87 82 65 28 27 25 24 18 15 15 15 16 14 16 17 18 18 16 12 14 21 25 25 21
29 25 16 13 8 14 25 7 45 70 65 83 91 86 66 48 5 88 100 100 100 100 82 94 85 62 41 27 28 24 22 20 19 18 17 18 19 20 16 14 22 26 26 27 26 27 22
32 25 17 13 7 30 38 18 56 52 86 100 94 100 57 8 6 100 100 96 100 98 71 79 98 74 50 31 27 29 28 27 24 23 23 21 19 17 25 29 28 26 24 34 36 34 31
35 25 18 13 5 47 64 54 63 75 92 97 90 90 13 4 12 100 99 100 100 89 64 100 97 64 49 45 31 26 24 25 23 22 20 19 23 31 31 27 26 26 35 40 41 50 58
38 25 19 13 6 54 87 100 100 74 100 67 93 46 8 4 16 99 99 100 100 94 84 99 96 43 41 46 44 41 37 34 31 30 32 35 34 29 24 29 33 31 34 56 65 52 69
39 26 21 14 8 39 96 100 100 85 97 54 84 100 6 4 84 100 100 98 97 100 87 83 86 74 40 42 44 44 43 40 37 36 34 28 26 26 30 33 37 48 53 58 74 78 78
40 28 24 15 9 16 62 98 81 73 73 68 74 44 5 36 99 100 100 100 95 91 80 100 100 65 38 36 37 38 38 34 29 26 26 26 30 31 38 48 53 56 59 67 75 87 74
43 32 28 16 10 8 37 77 73 97 100 22 39 10 5 75 100 100 100 100 100 100 100 100 95 66 41 34 35 34 30 29 23 26 29 34 33 48 52 60 54 59 76 77 92 98 70
47 35 31 18 11 7 26 52 85 93 93 36 14 13 56 97 96 99 92 81 100 100 100 94 95 98 67 45 37 36 31 28 28 32 32 33 49 56 62 62 63 69 72 86 100 94 90
51 40 35 20 13 8 23 42 69 87 56 28 73 90 86 90 96 85 92 100 100 100 89 89 94 95 89 62 46 36 29 25 30 30 35 51 74 68 73 80 86 92 83 78 79 94 75
55 45 40 23 16 8 24 34 47 59 30 22 88 89 99 95 77 78 94 87 100 100 86 69 64 66 77 72 57 38 23 27 32 39 65 83 88 78 83 89 90 85 67 52 55 69 70
54 54 45 29 19 10 18 28 25 42 39 34 63 61 83 90 97 98 93 93 90 81 83 74 64 51 45 43 33 18 25 32 40 60 90 92 89 85 96 96 91 78 58 55 62 70 67
55 56 49 37 23 16 7 22 25 32 41 48 39 40 48 74 62 76 79 82 78 82 78 67 64 58 35 26 20 23 29 29 44 72 96 99 94 98 100 94 71 58 62 60 70 86 90
47 55 53 44 25 20 13 9 19 22 30 39 51 43 44 36 52 55 70 72 70 73 66 63 54 45 33 27 28 33 33 36 54 94 97 96 96 97 97 94 77 76 70 70 70 69 84
43 46 52 51 30 23 19 9 12 16 23 33 45 55 49 50 59 70 65 60 51 55 63 54 49 42 40 35 34 38 33 51 62 96 97 91 90 96 98 98 90 90 86 78 75 80 94
40 42 47 52 36 25 22 18 8 12 19 22 31 47 44 49 56 60 68 71 63 60 60 62 62 64 52 38 38 36 45 59 73 87 81 86 80 83 89 90 97 100 97 83 87 84 93
48 38 42 50 40 28 21 21 15 7 13 20 20 57 59 63 53 54 66 72 73 74 64 68 75 78 70 60 50 49 58 60 68 83 70 61 65 67 64 62 65 79 84 94 89 82 84
56 45 42 54 47 32 22 20 19 11 3 14 22 41 61 68 56 58 69 77 81 83 75 84 90 82 82 78 73 67 69 70 64 71 71 62 53 58 56 57 59 63 67 77 86 86 84

GFSGBSN_500_rhum_018.txt.gz
RH
10 11 11 10 9 9 10 11 11 10 10 14 17 18 19 18 18 19 9 6 8 32 82 48 52 42 29 27 24 22 22 21 21 19 14 10 10 11 11 11 10 7 7 13 13 8 7
11 12 12 13 12 10 8 9 10 10 9 8 8 9 15 18 18 18 19 10 6 8 45 89 50 52 35 25 26 22 22 21 20 19 17 12 10 9 9 9 8 6 6 11 12 10 10
12 13 14 16 16 14 12 11 10 10 8 6 4 3 4 8 20 19 18 18 9 6 13 52 96 70 52 33 26 25 22 21 21 19 17 14 11 10 9 10 8 8 11 13 11 11 9
16 14 16 20 21 16 11 11 10 5 4 4 4 4 4 4 6 17 20 17 16 8 6 22 84 95 65 34 26 24 22 21 18 17 23 16 12 10 9 8 10 15 12 14 12 10 9
21 20 19 21 21 14 12 11 6 8 10 11 11 10 8 6 5 5 18 19 15 11 7 19 32 66 91 31 25 23 20 19 20 20 63 30 13 11 12 14 19 21 16 16 11 10 10
25 26 25 25 20 15 11 9 12 16 13 11 11 9 7 4 3 4 5 16 15 12 10 100 21 48 51 41 27 22 23 22 21 23 25 18 14 13 22 26 27 23 18 14 12 9 13
26 30 29 28 19 12 10 10 18 14 11 14 21 24 34 35 6 4 4 8 14 12 12 9 16 46 42 36 29 24 24 25 24 23 19 20 17 17 30 26 26 21 17 15 13 12 12
26 34 34 28 16 11 10 20 18 9 18 44 65 88 90 100 45 4 4 6 10 26 26 33 76 50 44 33 28 23 24 24 25 27 25 23 22 36 30 28 28 23 20 21 24 22 12
36 38 37 25 15 11 9 40 11 9 46 72 90 89 100 95 54 7 5 6 9 48 31 34 46 54 48 32 30 26 24 24 26 28 29 34 41 35 32 30 28 27 23 22 18 18 14
40 41 37 22 14 10 18 49 16 14 78 84 100 100 100 99 65 7 5 79 100 52 40 54 100 88 68 35 31 25 22 22 21 25 30 35 37 36 33 31 27 22 17 18 18 16 13
38 42 36 22 14 9 36 48 44 43 62 74 67 83 87 95 47 8 7 100 100 100 100 54 99 95 97 38 30 23 22 21 23 26 30 36 34 30 29 28 18 19 18 18 17 16 13
38 41 34 24 14 8 54 75 78 63 60 71 74 90 95 100 59 5 45 100 100 100 94 76 97 92 85 33 28 23 19 19 23 20 20 23 24 26 25 20 18 18 17 18 16 14 11
37 43 34 26 14 9 43 81 99 100 94 100 100 81 75 82 14 20 100 100 100 100 76 82 81 88 89 31 28 22 19 18 22 25 22 22 26 22 19 18 18 18 17 14 15 16 13
36 41 35 28 14 9 39 80 93 99 100 87 94 79 57 26 4 73 100 100 100 100 83 38 48 94 90 30 28 27 24 20 17 16 18 18 17 19 20 20 18 16 18 29 22 16 12
38 43 37 30 15 9 24 56 97 87 64 75 98 88 30 6 8 98 100 100 100 100 100 92 86 98 79 36 28 28 25 25 23 22 24 23 20 21 21 20 21 24 27 27 26 25 17
40 47 41 32 15 10 20 66 88 87 78 84 64 44 12 5 43 99 100 100 100 99 100 78 98 85 75 46 28 28 28 30 30 28 26 24 22 21 24 31 30 26 27 29 29 28 21
42 50 47 35 17 10 17 57 82 74 100 58 25 59 6 28 95 100 100 100 100 100 96 91 98 100 79 50 39 31 31 29 26 25 24 24 26 32 33 28 25 32 30 33 37 36 42
45 52 54 37 18 11 15 53 56 23 18 12 18 9 71 93 100 100 100 100 100 100 82 95 85 72 80 55 50 46 40 38 39 40 41 39 32 25 27 31 32 29 41 47 46 61 51
47 49 52 41 20 13 13 44 32 23 12 5 5 17 93 91 100 98 96 77 82 71 68 81 98 75 44 46 48 48 46 47 45 42 31 28 27 30 35 37 45 50 51 54 61 57 53
49 43 51 45 22 15 12 38 36 43 8 10 14 45 94 97 91 94 94 97 98 98 99 100 100 99 45 45 46 45 45 40 33 26 24 27 32 36 45 61 60 57 59 67 69 48 46
49 38 44 53 28 18 9 30 33 55 13 34 57 58 81 90 92 95 95 95 100 100 100 100 99 98 54 44 39 38 34 30 27 26 26 31 39 51 73 71 71 61 71 77 53 64 62
46 36 39 50 39 22 12 16 34 48 43 55 72 63 58 65 70 65 74 96 93 95 100 99 97 98 99 71 50 40 35 32 25 26 31 41 81 87 82 77 62 80 79 62 66 60 57
49 32 37 47 50 30 18 8 22 34 45 32 52 61 47 45 60 60 62 77 75 81 83 76 74 70 91 84 81 66 48 31 24 33 43 85 91 95 86 71 71 72 70 61 63 59 47
53 34 36 41 54 40 26 14 10 23 32 42 58 59 66 69 54 56 53 53 49 49 62 70 63 54 44 46 58 61 72 19 32 35 59 91 100 100 97 78 77 81 78 66 66 71 65
54 46 39 37 46 52 38 24 11 13 24 22 27 30 34 46 53 48 54 45 50 63 68 66 61 49 41 31 30 26 17 19 30 48 65 97 100 98 100 96 92 92 79 73 62 78 85
56 52 44 42 41 52 45 33 24 15 10 18 26 30 31 30 36 37 34 42 59 62 61 60 50 47 39 29 22 19 25 32 37 53 79 99 97 98 96 100 99 92 87 79 69 77 80
52 58 48 48 42 44 41 42 28 25 17 7 16 22 38 39 30 31 35 52 50 54 46 49 48 42 36 34 31 27 30 33 43 66 87 98 96 86 86 98 98 100 97 93 77 84 80
43 56 50 48 45 37 33 42 33 28 25 18 6 14 28 34 42 44 47 50 48 44 41 50 50 55 55 49 44 37 35 32 42 62 90 96 92 66 64 59 65 71 76 77 74 77 71
48 51 50 47 48 37 28 36 36 26 23 20 13 6 17 27 41 51 47 45 62 60 51 64 62 73 70 67 62 52 45 38 42 58 76 95 74 59 60 56 50 54 61 59 61 62 66

GFSGBSN_500_rhum_021.txt.gz
RH
33 27 24 24 28 28 26 24 18 12 8 8 8 8 8 9 11 9 17 21 18 10 7 14 90 79 76 29 28 28 28 34 29 24 19 15 11 12 15 16 15 12 12 12 13 11 9
37 34 27 24 28 32 27 22 14 10 8 8 8 9 8 11 19 16 10 20 21 18 12 6 72 66 69 70 31 28 26 27 28 25 23 19 16 11 11 12 12 12 11 10 10 10 7
40 36 33 31 35 35 26 17 12 9 9 13 24 23 19 15 11 8 18 19 25 21 19 10 8 78 77 68 59 32 28 26 24 23 23 23 21 15 11 10 11 11 12 12 11 11 8
43 43 32 31 38 35 23 16 10 8 10 23 14 12 13 14 13 11 6 14 25 25 20 16 7 21 77 64 52 33 28 26 23 23 23 22 22 21 15 11 10 10 10 10 16 10 9
43 42 34 33 38 29 23 14 9 11 15 8 10 14 17 14 11 10 9 6 16 26 22 16 13 8 60 72 53 40 28 27 25 22 57 26 23 20 17 14 10 9 10 11 13 14 10
46 40 34 35 39 27 20 11 11 22 15 10 27 37 48 43 32 11 6 6 9 21 22 18 18 12 35 82 90 51 31 26 25 26 28 58 54 37 20 16 13 13 11 10 12 13 10
49 39 36 35 37 29 16 10 19 33 26 23 66 88 100 90 86 60 6 5 6 16 20 40 16 17 47 73 100 74 34 26 24 23 22 33 43 92 99 29 14 12 12 14 22 17 15
48 44 34 34 32 28 12 13 30 53 51 63 80 98 92 85 100 66 12 4 8 15 78 67 42 26 64 77 95 79 31 28 23 25 20 20 25 76 40 18 15 13 16 23 26 21 10
52 50 34 36 31 22 11 17 46 73 77 61 63 65 79 78 100 64 10 5 10 18 98 89 26 68 48 63 62 91 37 25 26 26 24 30 40 38 25 20 25 23 18 22 22 22 17
65 53 35 34 31 18 11 25 72 83 100 98 95 97 85 72 100 60 7 7 12 87 88 24 18 21 42 58 50 49 48 24 22 24 26 28 30 30 30 27 33 26 25 26 24 22 17
76 52 33 31 31 16 11 34 77 100 100 100 100 100 93 69 100 71 6 56 35 100 100 99 21 77 62 53 44 40 26 22 23 23 24 29 34 37 47 39 29 28 25 25 21 17 14
83 49 32 27 28 15 12 46 88 100 100 79 99 100 80 63 78 18 57 88 95 100 100 94 51 46 47 50 42 33 25 22 23 20 21 28 43 58 50 37 31 26 23 22 18 15 12
84 48 34 27 27 14 12 43 46 66 100 98 89 90 78 50 27 25 98 82 99 100 68 36 26 64 97 78 52 31 25 22 20 22 25 38 43 38 33 30 23 22 21 19 16 14 10
84 48 36 30 27 13 11 27 30 31 54 74 49 54 31 8 40 100 98 100 100 82 37 38 51 60 70 93 62 29 26 20 19 24 26 41 34 32 30 28 22 18 21 20 16 13 10
83 48 35 30 27 12 11 18 36 20 20 34 22 16 8 16 96 100 100 100 93 94 78 44 70 82 83 92 32 28 24 20 19 26 30 27 29 26 23 22 22 25 22 22 20 18 13
76 50 31 30 28 13 11 14 24 5 9 15 6 29 80 100 98 100 100 100 100 100 96 81 74 51 50 70 29 27 25 24 24 24 21 22 24 26 25 24 23 23 25 23 23 19 16
67 50 29 30 31 14 12 14 13 5 8 5 38 81 100 100 100 100 99 100 98 88 78 68 61 74 87 54 28 28 30 29 30 28 26 28 28 30 28 24 26 30 28 23 23 24 27
71 54 28 31 35 17 13 16 13 14 7 28 68 82 100 100 100 92 99 100 88 95 100 91 73 63 90 58 32 32 32 31 32 30 28 27 27 34 33 33 29 24 25 27 38 41 36
89 73 32 32 37 21 13 16 11 22 22 39 63 91 83 81 88 86 82 80 88 98 86 92 98 92 93 59 44 32 31 31 30 33 38 40 38 32 26 27 26 31 44 44 43 48 61
91 82 43 31 34 28 16 16 18 47 39 57 58 63 65 61 65 82 89 88 82 78 89 94 88 82 88 58 52 50 45 46 45 46 42 34 28 28 31 32 34 55 54 54 60 52 46
94 89 51 31 37 40 17 14 19 22 62 64 53 47 49 55 53 51 72 66 75 82 79 88 85 93 56 54 53 51 50 49 45 38 29 25 29 35 32 44 60 57 69 63 58 62 50
94 91 57 37 37 43 28 17 13 21 29 37 41 44 39 47 57 65 66 74 76 79 94 94 95 88 93 43 45 48 41 35 31 28 26 29 34 58 73 82 68 75 68 69 79 67 57
94 88 61 48 40 43 44 24 17 13 17 32 37 37 41 39 47 55 55 66 64 72 88 92 90 84 95 57 38 35 33 33 31 25 28 36 66 89 88 81 83 85 85 89 81 69 61
92 89 68 54 47 49 46 42 26 17 12 17 26 30 37 32 34 38 41 42 46 56 51 44 55 57 54 77 58 39 53 50 36 22 33 47 83 99 96 90 90 88 89 91 72 64 67
95 95 89 67 48 58 58 45 41 28 18 12 17 30 33 39 47 30 36 36 34 35 36 36 33 34 40 41 61 61 55 63 35 27 33 53 97 100 98 100 96 91 98 86 67 62 63
100 96 96 51 57 50 65 62 50 44 32 22 11 14 19 31 33 41 44 39 43 37 35 57 55 45 40 33 29 47 52 49 16 23 40 65 98 98 100 99 92 93 99 90 81 64 55
100 92 96 55 53 55 50 68 61 58 48 36 27 19 9 20 31 27 34 38 34 33 39 51 50 46 42 33 27 32 21 18 24 34 54 63 96 96 95 95 98 99 95 93 86 61 54
98 93 99 65 61 61 45 51 62 59 57 46 37 29 21 10 17 35 34 26 29 29 35 42 42 40 41 34 30 26 21 21 24 34 57 67 91 96 86 80 69 61 57 63 56 52 59
100 97 98 88 87 86 61 48 47 57 52 48 42 33 26 19 10 17 38 42 35 37 59 55 48 48 49 48 43 33 32 27 23 30 48 64 82 91 75 62 60 52 47 47 46 44 53

GFSGBSN_500_rhum_024.txt.gz
RH
34 35 35 34 38 38 33 29 29 24 14 9 8 10 17 24 30 14 25 22 22 30 25 21 8 28 94 69 72 45 25 39 29 26 22 18 14 17 20 19 20 15 15 15 16 14 12
42 41 39 40 44 39 30 26 24 17 11 9 9 17 23 11 14 30 22 23 25 30 30 27 21 26 71 91 77 54 32 36 39 33 25 21 17 14 16 20 18 14 16 14 15 13 12
48 45 43 50 51 37 25 23 20 12 14 18 13 12 10 11 13 13 26 22 21 32 34 32 23 22 20 100 96 57 46 38 38 39 33 27 22 16 14 14 17 17 16 15 15 16 14
50 53 51 61 50 32 26 21 17 12 26 37 23 19 38 42 35 14 14 22 15 25 36 35 24 100 26 97 97 94 36 38 51 34 37 35 30 22 20 13 12 14 14 14 17 16 15
55 59 65 63 46 30 25 19 12 18 57 62 46 38 43 84 60 30 16 15 15 18 32 34 24 44 21 79 100 99 67 38 35 30 29 30 31 27 23 17 14 11 10 11 14 13 13
62 68 68 66 41 29 19 16 11 34 86 96 71 63 59 58 82 90 29 11 12 13 26 31 66 56 22 37 98 100 89 34 35 34 57 46 28 22 21 20 18 16 13 10 10 10 11
65 73 62 65 39 24 16 11 14 44 97 100 96 74 80 83 81 90 60 10 8 11 25 30 34 40 53 50 96 97 97 58 44 54 72 81 62 27 23 24 22 19 17 14 11 10 8
73 82 74 57 34 18 16 10 21 44 60 100 100 100 99 100 79 99 76 10 6 12 30 49 50 58 46 38 95 98 97 69 79 74 68 60 64 78 100 80 34 21 19 16 13 10 8
85 83 75 49 25 13 16 10 19 50 59 100 100 100 100 99 73 98 60 8 6 16 42 100 84 74 91 69 82 99 100 89 62 44 36 30 34 43 51 72 68 48 27 17 14 12 10
91 84 74 44 18 12 14 10 21 27 38 100 100 94 100 89 70 100 41 4 8 24 83 53 53 48 69 82 83 98 93 69 71 59 29 31 29 30 34 51 54 26 18 17 17 16 11
95 86 64 42 16 14 12 8 13 7 21 67 100 97 100 92 57 100 15 5 19 98 100 99 92 58 100 65 73 83 72 41 30 28 30 32 28 29 28 29 21 22 21 20 18 16 12
93 83 56 44 18 17 10 7 12 8 14 72 87 86 98 80 66 83 6 12 77 100 100 100 80 84 79 44 68 71 85 50 30 26 25 27 30 31 32 30 26 28 30 26 22 20 13
94 85 58 43 20 17 10 10 10 5 14 39 65 39 39 53 37 20 10 82 100 100 99 92 38 72 35 50 57 64 43 38 29 25 24 25 30 31 29 26 29 35 36 28 22 18 14
94 87 69 43 22 19 10 13 11 13 37 33 7 42 18 20 82 50 73 100 100 90 66 34 26 44 63 53 49 42 42 29 24 24 26 26 32 37 43 42 33 30 25 22 17 14 13
93 92 73 46 25 20 11 18 17 62 59 98 80 77 100 49 63 100 100 98 87 76 74 33 50 63 55 54 51 38 31 25 24 24 31 28 38 38 34 28 28 28 22 19 18 15 11
98 96 74 49 28 22 12 19 19 48 51 80 99 100 93 77 94 94 94 79 58 64 60 44 35 73 67 67 74 36 30 25 24 29 32 37 43 33 31 30 24 22 21 23 22 18 16
100 97 85 51 31 25 14 21 23 24 52 31 93 82 75 98 80 100 63 59 72 53 40 40 66 80 78 93 62 32 30 26 22 25 28 29 28 26 24 25 25 24 22 25 26 22 20
100 98 93 60 36 29 15 20 24 23 32 48 39 34 45 82 63 45 49 43 60 67 75 75 68 67 84 100 44 32 30 28 24 24 28 29 28 28 26 26 27 31 28 23 23 24 38
100 98 94 67 43 36 16 23 23 29 28 38 36 56 32 20 29 50 71 73 62 78 68 56 44 69 83 60 34 29 31 29 30 30 30 30 27 28 30 33 29 24 26 29 34 47 59
99 98 96 70 48 38 30 17 28 29 26 29 35 30 21 50 37 40 47 74 77 75 82 80 81 74 79 52 33 30 30 30 30 30 30 34 38 36 30 26 26 32 34 46 58 57 50
99 99 97 73 55 43 39 25 16 19 27 23 20 23 34 35 38 45 52 54 56 62 72 72 79 87 86 56 43 38 34 35 36 41 46 40 31 26 25 26 32 44 61 74 70 60 48
98 99 98 86 62 54 47 38 25 16 14 25 27 28 25 27 32 37 39 46 55 53 52 69 69 81 82 84 57 53 51 51 49 45 38 30 27 27 27 35 53 72 81 73 64 54 60
100 99 100 98 87 60 54 53 38 26 16 13 15 29 26 24 23 25 32 43 53 60 71 68 76 78 85 75 64 70 50 45 42 36 30 27 31 33 52 66 72 77 84 68 71 62 58
98 100 99 98 95 56 62 62 56 44 28 16 14 13 19 26 28 34 37 44 43 48 55 48 44 50 77 85 58 42 39 34 33 31 26 29 36 57 77 76 86 86 88 81 72 53 42
97 100 99 98 98 68 61 64 68 64 52 37 19 16 14 14 17 18 24 28 34 36 36 33 33 31 34 57 60 57 41 50 49 40 24 31 47 79 77 88 99 95 98 86 72 59 53
98 100 99 100 95 95 64 70 62 68 68 62 46 26 18 14 16 25 27 36 39 38 33 34 26 27 26 23 33 44 61 50 52 58 19 29 49 87 92 99 99 100 100 86 91 83 49
100 100 99 100 95 95 69 86 83 77 75 69 65 57 36 26 17 11 14 28 40 41 38 41 46 53 46 36 28 30 39 52 50 43 19 28 55 92 98 97 94 97 93 90 80 64 51
100 100 99 99 98 97 94 95 89 99 96 83 78 75 64 50 33 25 17 11 24 34 37 34 31 45 46 41 34 31 30 30 27 24 32 45 65 99 99 93 90 90 75 70 60 47 52
99 99 98 100 100 96 97 100 87 87 86 80 76 80 77 65 51 38 29 16 15 27 30 34 32 31 41 40 38 34 30 29 28 31 31 50 73 97 94 86 71 63 56 51 49 45 44

GFSGBSN_500_rhum_030.txt.gz
RH
52 44 56 56 68 76 75 54 45 31 23 16 10 15 57 92 99 94 54 49 42 58 42 22 41 46 29 23 100 99 97 97 98 86 40 33 27 28 28 24 22 20 20 19 20 20 21
49 54 62 62 75 80 61 50 37 25 15 8 9 24 88 100 100 76 67 75 65 53 54 29 38 50 37 15 34 72 100 94 99 96 48 36 29 24 25 27 25 19 16 19 19 17 16
61 59 58 59 72 75 62 44 27 16 9 9 17 39 100 100 100 85 85 96 70 65 43 36 35 53 40 20 36 72 93 98 98 92 52 40 36 26 21 21 23 21 19 20 19 20 14
77 61 73 71 77 72 53 35 21 10 7 12 15 38 100 100 100 100 98 100 97 63 31 38 42 54 40 23 28 60 99 94 93 94 50 46 38 33 24 19 18 18 19 18 20 22 16
91 76 77 74 86 70 47 29 13 8 11 18 28 88 100 100 100 100 100 99 96 56 36 33 48 53 42 22 20 79 85 100 96 100 86 50 40 34 29 22 18 16 15 17 21 22 19
94 90 76 73 95 68 40 20 9 8 12 7 72 63 94 100 100 100 100 100 100 38 41 35 52 53 33 44 98 81 95 99 97 100 99 69 49 35 30 25 18 16 15 16 19 21 19
97 95 71 77 94 61 31 14 7 16 13 6 100 92 77 82 97 99 95 99 71 29 37 44 52 46 28 100 100 100 98 100 100 98 92 87 62 38 31 27 26 23 18 15 14 16 17
94 92 69 83 86 48 22 12 8 24 9 5 75 98 100 84 87 81 87 100 26 38 33 51 51 40 35 89 86 74 98 100 98 98 100 98 77 52 44 33 28 24 22 21 19 15 13
94 82 69 77 82 43 16 12 19 12 7 4 12 89 82 98 65 81 100 34 31 28 49 50 46 34 27 35 64 100 95 97 99 99 100 93 88 88 54 40 35 28 24 25 22 18 12
84 81 69 93 84 33 16 13 26 22 32 20 5 46 89 68 69 91 29 21 27 47 77 42 77 32 97 97 55 82 92 100 97 98 100 99 92 85 68 47 37 31 29 26 24 19 14
66 82 84 90 90 32 18 22 18 18 28 38 7 11 30 50 30 12 14 26 55 100 100 84 100 72 94 98 82 87 96 98 97 99 98 87 100 100 98 98 59 36 27 24 21 17 14
51 71 64 98 94 33 18 23 38 19 24 26 42 39 12 8 9 13 22 36 90 96 85 66 70 76 48 38 43 66 92 100 94 100 100 95 98 99 99 100 100 100 71 68 54 38 23
39 30 60 98 96 33 18 15 29 29 37 44 31 64 65 20 27 23 34 41 81 59 97 94 86 62 48 30 50 87 92 98 99 98 90 86 97 96 94 97 97 65 81 67 43 40 25
55 24 36 78 99 40 20 14 16 22 28 30 42 46 82 50 98 97 53 54 94 34 40 50 70 41 28 30 60 85 92 99 96 95 100 84 82 81 81 61 39 32 26 29 28 25 22
88 31 21 70 94 48 24 16 18 31 31 33 24 34 54 63 46 53 49 53 32 43 54 51 82 64 48 61 67 91 100 100 100 95 85 84 76 57 40 30 30 32 24 29 24 21 22
84 31 53 41 100 70 29 16 16 24 32 38 27 37 36 46 46 52 58 44 43 44 44 41 37 50 55 66 82 98 78 67 73 73 69 58 45 38 33 29 29 32 35 37 27 26 27
43 22 37 50 90 90 36 20 14 16 22 30 37 27 45 35 33 42 41 52 38 46 46 68 67 69 63 74 90 93 85 74 54 34 34 42 37 30 31 35 42 44 46 40 33 23 19
17 14 18 79 86 100 48 30 14 14 22 20 30 40 26 42 44 30 32 33 31 33 52 81 68 64 66 68 64 88 47 52 34 28 33 41 35 43 44 46 44 40 34 27 24 23 21
16 22 16 61 93 97 81 39 22 13 20 24 22 27 43 34 43 40 28 24 32 43 50 71 67 63 79 87 73 46 42 33 29 34 41 47 48 40 37 31 28 27 26 24 23 25 25
15 20 42 50 96 97 99 50 34 19 14 19 23 23 26 33 39 39 51 58 61 62 47 42 38 64 71 88 75 34 32 31 29 29 32 33 31 27 27 27 28 27 26 28 26 26 30
7 13 59 63 100 100 98 91 44 29 18 18 21 25 26 23 24 30 36 41 36 43 52 63 55 48 72 78 38 31 32 30 31 34 34 31 31 29 28 31 32 31 29 26 30 36 63
8 12 32 19 49 100 100 99 74 43 28 19 17 19 24 28 29 28 23 37 35 28 48 59 65 82 79 58 42 34 30 32 32 33 32 31 34 39 38 32 27 27 29 34 49 69 70
5 4 18 16 50 86 100 99 97 54 46 32 20 17 17 19 24 31 36 41 53 44 43 56 57 67 80 70 53 44 39 36 33 32 31 35 41 38 34 27 27 32 39 56 71 75 71
2 4 5 7 24 54 99 100 100 71 58 51 41 31 22 18 17 20 28 33 37 49 55 54 51 49 59 69 76 65 54 51 49 47 46 46 43 38 30 27 31 59 77 78 88 80 59
4 5 6 13 58 80 92 98 100 89 60 72 59 53 46 32 22 18 18 20 24 27 41 44 52 46 42 41 50 77 71 69 63 52 47 45 42 33 28 30 43 78 87 95 95 78 48
5 8 18 28 47 85 99 98 99 100 83 75 76 66 64 60 49 38 25 19 18 21 27 27 38 38 38 37 42 45 64 58 53 56 48 35 33 29 27 35 60 84 90 96 93 77 65
5 8 22 44 46 82 100 99 99 100 100 93 94 93 91 86 70 67 60 45 32 22 21 29 29 26 29 33 33 42 47 55 56 44 42 42 41 32 29 38 82 94 98 99 98 81 83
7 14 24 56 96 67 100 100 99 99 99 100 99 100 100 100 99 89 81 80 65 45 32 21 24 27 32 35 36 35 35 40 46 56 58 44 46 51 34 36 97 96 96 94 96 89 96
39 40 96 100 100 82 99 100 100 100 98 98 99 99 96 96 100 97 94 85 76 74 57 38 26 22 32 36 38 55 51 48 40 40 48 56 44 47 46 34 84 98 98 100 100 100 99

GFSGBSN_500_rhum_033.txt.gz
RH
68 73 86 93 88 73 80 86 70 32 17 8 8 20 10 37 95 100 100 100 95 85 53 36 48 49 29 42 41 38 96 92 95 95 97 55 37 33 34 56 68 59 46 45 49 42 36
71 63 95 69 75 56 81 85 43 18 10 6 6 11 39 98 100 100 100 98 92 77 69 67 61 45 32 41 50 52 86 93 94 92 97 64 40 33 32 32 38 64 66 63 47 45 37
42 55 77 55 59 72 99 69 22 14 8 10 9 28 94 100 100 100 100 100 97 94 83 87 100 44 34 37 48 52 100 87 100 93 99 86 49 36 30 31 32 35 62 51 33 29 26
40 57 73 58 56 98 93 31 17 11 17 14 6 82 86 97 96 100 99 100 100 100 99 93 80 39 38 43 52 100 99 100 100 96 98 95 69 41 30 32 29 29 28 42 43 20 18
43 68 52 57 75 100 84 23 11 13 30 15 6 100 79 67 63 95 100 100 100 99 74 100 56 35 52 41 87 94 89 93 100 98 100 100 70 44 36 28 29 26 24 24 25 20 17
55 30 38 59 84 96 67 19 12 19 34 26 14 58 100 95 78 77 85 96 100 99 70 70 46 39 52 39 36 42 60 93 97 99 100 100 76 46 38 29 25 23 22 21 21 22 21
53 42 32 41 64 97 49 14 18 32 30 32 20 19 91 96 94 100 82 91 98 56 56 46 43 49 48 35 26 29 53 86 100 100 98 83 73 46 34 33 26 22 20 18 18 18 17
82 48 24 39 68 98 31 12 19 31 33 38 11 11 63 75 69 80 91 84 37 44 44 44 64 56 37 25 16 35 92 97 98 100 99 90 77 52 41 36 34 28 23 20 17 16 15
40 83 38 28 35 88 38 12 23 28 34 25 30 11 20 46 59 58 31 34 42 38 50 58 55 40 51 68 54 85 99 86 89 100 98 100 98 59 46 37 32 30 27 25 21 17 14
30 41 83 31 47 98 40 11 24 27 38 36 41 33 13 14 19 31 37 36 43 57 54 53 52 82 100 100 100 100 100 100 100 100 99 100 98 91 59 45 38 32 30 29 26 20 18
38 22 66 33 45 92 40 12 22 26 44 54 45 29 20 25 28 35 46 58 60 68 90 61 51 92 67 97 98 98 98 100 100 100 99 100 98 99 92 60 49 43 37 31 25 22 19
22 17 21 37 49 76 60 14 17 24 41 45 73 40 19 24 57 100 90 62 100 100 98 46 36 45 43 37 86 79 90 94 98 100 99 100 99 98 93 86 63 51 43 35 28 23 18
22 17 14 22 40 79 80 17 14 23 39 32 69 54 36 42 65 62 56 53 87 77 100 100 75 99 76 49 43 70 100 98 100 100 100 97 100 93 100 100 97 63 49 43 36 26 21
23 17 10 16 29 99 93 20 11 21 41 31 36 46 46 28 37 42 39 49 54 42 68 70 72 40 58 59 65 76 92 96 98 100 100 100 95 99 97 100 100 100 100 92 62 64 53
26 16 10 13 28 98 100 26 14 22 36 45 23 28 38 38 35 28 35 50 60 56 51 41 34 33 25 39 50 86 89 98 100 99 100 97 94 92 92 95 95 91 81 52 50 47 35
25 22 7 10 24 76 100 41 17 16 28 43 39 24 23 30 39 40 32 35 32 40 56 49 41 47 42 49 72 91 93 86 93 100 100 98 89 84 82 86 77 51 47 43 36 32 28
26 22 4 8 18 68 79 87 20 15 15 30 44 44 24 22 34 36 31 33 34 41 40 45 49 53 61 76 88 97 96 94 92 96 91 80 66 69 64 52 36 32 30 33 40 34 34
26 12 3 7 21 60 89 100 36 16 14 19 33 51 45 22 18 21 20 25 25 31 33 31 49 49 57 66 88 92 92 80 84 60 48 60 60 53 41 36 33 31 34 38 41 38 27
25 2 2 4 9 36 86 100 98 23 16 14 22 36 51 52 39 22 18 20 26 26 47 56 53 63 66 68 69 76 71 66 57 38 29 31 34 30 34 42 41 43 43 40 33 25 25
3 1 2 2 4 17 41 92 100 52 21 18 17 19 26 36 67 66 65 57 57 54 41 53 46 69 80 87 83 71 48 35 28 26 33 38 45 48 43 37 35 32 27 25 26 31 29
2 1 1 2 2 10 17 57 85 99 36 20 18 18 18 21 26 44 68 62 49 51 60 52 42 40 69 83 86 51 33 31 27 29 33 35 35 32 31 30 30 29 30 31 32 29 30
2 2 2 2 2 3 9 51 88 94 96 30 22 18 19 20 21 19 22 34 39 40 62 66 72 65 77 76 44 32 31 30 30 32 35 34 33 31 30 35 37 35 32 31 30 31 39
2 2 2 2 3 4 6 13 54 90 100 67 30 22 19 18 20 21 25 31 43 39 46 67 71 79 84 62 46 40 31 33 32 32 32 33 35 39 41 37 30 27 26 30 34 47 59
3 4 3 2 3 7 10 38 44 88 90 99 53 39 31 22 19 18 20 21 27 38 50 61 67 62 80 83 67 50 46 37 34 32 32 33 39 44 39 33 30 31 38 52 67 73 78
8 5 4 3 3 8 28 59 80 87 92 100 76 63 55 44 36 29 21 18 20 19 24 37 56 53 51 70 78 79 70 57 52 48 48 46 46 44 39 32 30 32 48 64 75 83 83
15 8 6 4 3 10 23 50 83 95 90 99 96 88 88 69 60 54 49 41 29 19 18 19 23 37 46 44 46 69 79 76 69 61 56 50 47 44 38 33 30 40 58 75 84 99 88
27 20 14 12 11 20 38 59 75 92 100 100 100 99 100 100 96 80 74 71 62 52 40 24 19 18 24 37 36 34 52 69 72 63 58 58 52 40 35 30 29 40 74 89 100 97 97
51 35 30 40 57 99 98 100 82 92 96 100 100 100 100 99 98 100 100 94 90 84 70 57 39 25 18 18 22 28 28 34 46 59 62 53 46 43 40 43 35 40 82 97 100 100 98
48 41 73 69 75 100 100 100 94 90 93 84 93 100 100 100 100 100 99 97 97 93 90 86 69 58 33 22 19 24 27 26 31 40 38 50 52 45 47 50 49 35 68 94 99 99 100

GFSGBSN_500_rhum_036.txt.gz
RH
18 21 38 48 27 44 56 77 73 26 14 22 24 20 25 95 100 100 98 100 100 100 100 100 99 75 62 29 22 32 38 35 29 29 85 64 64 84 63 51 67 88 70 72 53 46 40
17 22 43 44 33 57 66 80 36 21 23 29 24 13 52 100 97 88 96 99 100 100 91 84 74 74 70 52 24 39 70 55 36 36 91 85 69 77 53 59 56 88 71 80 71 52 40
16 19 39 50 49 25 58 68 21 18 32 30 42 26 63 95 88 88 95 98 98 100 92 73 50 35 43 61 33 33 65 75 70 54 97 94 81 73 72 53 48 61 88 89 80 65 43
17 19 23 24 60 33 75 53 17 18 28 36 34 20 45 100 76 84 96 100 100 100 93 75 79 81 28 59 34 31 100 68 100 100 99 97 96 81 54 52 45 51 82 97 98 75 49
19 21 20 27 45 33 89 32 18 22 25 40 26 14 41 99 96 83 70 85 97 98 90 81 88 100 49 45 33 39 54 50 81 100 89 96 99 93 56 48 41 49 46 88 95 88 73
22 22 21 20 26 37 98 22 17 28 27 44 15 16 32 75 92 100 87 84 84 83 90 69 92 90 52 34 49 82 57 100 96 89 98 100 100 84 56 54 50 47 53 56 52 71 77
24 25 21 20 20 38 94 32 18 28 30 30 14 17 19 46 62 89 91 97 82 65 67 100 87 60 42 63 100 100 94 100 98 96 89 100 96 70 58 56 38 43 32 33 34 35 47
23 28 22 18 17 38 96 32 19 27 34 22 14 18 16 21 34 37 37 41 54 80 76 66 63 55 48 72 100 100 93 99 83 89 99 99 83 76 55 46 36 38 42 28 35 27 28
22 28 26 21 13 28 99 26 24 30 50 21 15 22 28 34 38 42 46 48 50 70 89 79 70 45 39 78 54 59 81 100 99 99 97 100 86 86 60 42 35 30 29 26 24 32 23
24 26 27 26 11 21 100 23 26 34 58 26 30 41 30 36 42 49 48 55 88 100 100 66 50 37 33 37 32 47 91 100 86 98 100 100 100 98 63 46 38 36 30 26 23 20 20
23 24 28 30 9 20 97 28 26 38 39 56 25 36 39 42 47 56 63 61 92 95 94 56 44 31 26 26 46 99 100 100 100 98 98 95 99 95 80 50 41 36 34 33 30 25 21
21 27 27 30 6 16 89 51 25 35 37 36 22 32 45 73 76 66 66 50 53 49 73 68 87 100 68 70 100 100 99 100 100 100 100 99 98 98 87 54 44 40 37 35 33 30 26
26 32 28 27 4 12 62 81 18 33 31 32 16 22 30 50 75 60 62 40 49 67 92 83 90 93 94 100 100 100 100 99 99 100 100 100 100 100 100 94 64 49 44 40 36 30 25
26 30 32 13 3 11 42 97 16 30 35 30 18 14 18 31 43 41 49 58 32 42 59 74 58 45 54 98 94 96 83 98 99 100 99 100 96 100 100 100 93 78 57 49 41 35 30
28 29 22 3 2 6 41 76 25 23 33 27 32 20 15 18 33 43 47 57 28 45 67 44 70 66 53 49 86 99 100 97 100 100 99 98 98 100 99 100 100 100 85 77 62 55 42
18 21 9 2 2 5 33 85 82 14 28 35 20 32 27 14 23 23 27 33 41 47 33 31 26 29 38 52 69 90 87 95 95 100 96 93 96 92 97 98 99 99 99 100 97 84 78
9 7 2 2 2 2 9 91 93 38 20 32 32 19 31 24 17 23 27 28 36 35 30 26 24 25 25 40 56 74 88 81 80 89 98 100 94 93 95 94 98 91 82 74 60 45 42
3 3 2 1 2 2 4 39 100 98 17 23 35 31 20 27 25 23 22 23 22 24 22 23 28 40 56 62 70 76 89 91 86 87 85 87 89 84 85 89 84 86 72 44 39 45 40
2 3 2 2 2 2 2 10 49 97 60 12 29 34 25 19 21 23 26 29 27 29 23 30 37 45 54 64 72 77 76 83 90 86 76 62 68 63 54 52 42 40 33 32 32 39 46
3 3 3 2 2 2 2 3 17 55 99 29 14 26 34 34 24 37 52 59 54 36 50 50 55 58 68 71 67 80 82 82 85 70 46 34 37 41 48 45 44 44 41 40 39 41 33
3 3 3 3 2 2 2 3 5 40 93 95 20 15 20 30 53 60 54 42 48 58 70 47 40 40 59 71 73 68 52 45 42 34 36 39 46 48 47 48 47 48 45 38 31 28 25
3 3 4 3 3 2 2 4 5 16 89 100 93 21 19 18 24 33 40 34 32 38 58 69 78 61 55 82 82 67 38 30 28 26 30 34 40 40 37 36 32 31 30 29 29 30 30
3 3 7 5 4 3 2 5 6 9 34 97 100 55 23 18 19 16 20 24 29 28 32 60 70 85 89 95 71 50 32 31 31 31 30 32 33 33 33 34 37 37 35 33 31 29 27
3 6 8 8 5 5 5 5 9 43 46 82 100 99 35 23 20 19 16 17 18 27 28 32 42 62 80 80 64 51 37 32 30 30 33 35 38 40 44 43 40 33 30 28 29 29 36
2 10 14 11 7 10 19 10 13 35 57 100 100 100 94 43 34 27 21 18 17 16 20 30 46 53 55 74 79 67 54 46 38 33 33 33 37 47 46 40 36 33 31 36 45 59 61
2 9 23 22 12 12 35 52 28 33 71 100 100 100 100 95 74 56 50 41 32 21 19 18 19 30 48 51 50 67 76 69 58 54 48 46 47 45 45 42 38 35 31 36 56 69 77
3 10 41 33 20 53 85 94 100 67 54 100 100 100 100 100 97 94 79 76 69 60 50 36 22 19 17 29 46 44 42 52 73 74 64 58 53 49 46 43 38 33 31 35 54 72 82
3 26 55 35 38 89 90 98 100 100 95 88 100 100 100 100 96 100 95 96 97 94 86 82 74 50 32 21 16 27 39 36 37 52 72 69 63 60 55 46 40 36 31 39 66 79 93
8 44 77 72 51 90 94 88 100 100 100 93 93 97 100 100 100 100 100 100 99 98 100 100 100 99 89 54 33 19 17 23 32 33 36 45 59 57 54 51 47 45 35 37 69 84 93

GFSGBSN_500_rhum_039.txt.gz
RH
13 16 20 22 24 23 29 46 72 50 21 18 26 22 21 18 86 96 91 83 83 100 96 99 98 99 88 27 27 57 58 46 34 34 19 37 70 58 51 72 75 85 88 85 68 69 46
15 18 21 24 26 22 23 54 71 25 16 16 13 14 20 28 100 91 78 94 92 94 99 100 100 98 88 52 30 35 85 51 59 82 22 17 79 54 62 53 63 71 96 93 77 80 75
16 20 22 26 26 14 27 68 55 17 13 12 9 14 16 63 100 95 80 88 87 100 90 83 86 99 100 84 43 32 76 76 100 71 53 23 72 79 58 63 54 58 78 98 95 96 92
16 19 23 27 26 11 26 85 26 17 12 9 8 9 12 84 99 86 85 78 92 100 100 100 92 92 78 96 61 54 66 65 61 79 65 26 40 97 62 66 74 75 58 72 98 96 92
19 20 24 25 27 9 42 85 22 17 13 11 9 12 10 35 68 93 97 74 87 97 96 76 55 50 60 70 64 45 71 56 50 64 56 39 37 93 82 69 80 80 75 80 97 95 95
23 22 25 26 26 8 55 71 26 19 24 13 11 17 24 22 52 83 98 86 88 82 84 71 80 88 56 62 56 62 88 55 77 69 47 44 54 92 95 86 76 69 69 79 92 96 92
20 19 21 30 25 8 54 68 27 20 34 19 16 17 26 29 25 27 55 92 95 90 80 90 87 100 43 60 43 96 95 79 77 98 79 65 63 79 60 71 70 71 58 63 78 84 94
15 19 23 31 23 9 34 72 28 24 30 37 30 22 31 37 71 59 52 85 100 100 100 85 92 81 72 46 44 79 55 88 46 77 75 87 76 97 93 88 69 63 61 60 87 67 84
17 24 28 29 22 7 20 82 29 26 25 47 60 44 42 78 98 100 100 91 98 100 100 100 98 74 81 67 44 39 33 97 90 80 76 78 92 100 96 92 69 64 56 43 69 65 76
22 26 25 27 15 4 13 85 24 27 24 44 70 70 53 69 78 100 88 68 84 88 100 79 95 100 100 100 100 85 91 100 76 92 99 98 100 100 100 96 64 60 56 39 45 63 45
21 24 19 15 6 3 10 79 23 22 21 28 34 62 84 42 49 76 83 74 84 96 99 100 98 100 100 100 84 100 100 100 97 97 91 93 100 99 100 82 52 50 49 32 33 72 58
12 13 11 8 2 2 7 65 38 20 26 19 30 52 47 30 34 46 62 64 54 58 60 63 92 80 74 73 96 99 100 91 99 100 99 100 99 99 98 96 59 51 41 33 30 50 72
6 4 5 3 2 2 5 52 65 18 23 17 17 36 40 30 30 45 59 51 28 32 60 38 44 61 51 100 100 100 100 100 99 100 100 100 99 99 100 99 73 48 42 39 35 31 44
3 3 3 3 2 2 3 25 89 20 15 22 21 16 30 35 28 33 56 61 39 30 59 63 25 33 68 84 100 100 99 100 100 100 100 100 96 99 99 97 88 54 45 44 38 34 33
3 3 3 3 2 2 2 5 90 40 19 17 24 20 21 25 32 26 34 45 47 48 46 54 57 67 96 98 96 96 99 100 100 100 96 97 100 100 100 100 99 76 50 43 42 36 35
3 3 3 3 3 2 2 2 41 83 18 16 20 25 16 15 24 30 30 32 42 32 36 43 40 42 39 65 86 84 85 99 100 99 100 100 100 99 100 100 100 93 81 69 56 55 45
3 3 3 3 3 2 2 2 5 92 60 18 16 22 20 22 18 21 30 38 42 33 24 23 24 34 42 51 59 66 68 75 89 94 95 100 96 98 97 100 100 98 100 92 90 69 68
3 3 3 4 4 3 2 2 3 34 100 22 18 20 22 22 23 23 24 32 35 33 25 22 22 27 27 32 49 62 72 64 66 77 85 86 91 96 96 98 96 99 99 99 99 99 85
3 3 3 4 4 4 3 2 2 4 59 91 16 22 17 21 20 20 20 26 29 23 20 23 27 39 50 54 60 72 69 75 68 64 77 83 83 86 83 83 87 89 99 97 96 86 56
3 2 3 3 3 5 4 2 3 4 18 89 24 27 30 19 20 18 18 20 24 29 28 29 39 46 54 62 61 71 78 78 84 88 83 77 69 68 69 63 62 77 77 68 61 46 41
3 3 2 2 3 7 5 3 3 6 7 68 69 17 30 37 26 30 34 38 48 40 32 43 46 46 61 75 70 72 79 81 84 80 62 47 38 39 50 55 52 48 44 42 36 44 42
4 3 2 2 3 6 6 4 3 7 7 46 100 49 17 25 39 46 50 49 38 43 46 59 52 34 33 47 77 68 64 55 58 53 61 64 52 53 46 45 42 43 44 47 49 43 42
3 2 2 2 2 6 8 4 5 8 8 17 97 100 46 20 19 33 50 50 34 29 30 48 59 67 67 55 78 90 67 51 34 32 29 29 35 41 44 42 40 37 34 35 32 33 32
3 3 2 2 3 6 11 6 5 12 12 28 73 100 100 27 22 18 19 24 27 27 28 31 51 64 75 79 80 68 58 37 33 33 33 34 36 39 39 37 33 36 33 34 34 33 30
4 4 3 2 4 12 15 8 10 36 36 33 100 100 100 89 26 21 20 20 18 20 22 29 39 44 67 77 80 63 50 38 33 32 33 35 36 38 37 37 42 39 35 31 30 32 31
5 5 3 3 5 22 21 14 18 56 72 61 49 93 100 100 86 32 24 21 20 19 21 18 22 26 49 56 63 78 73 54 46 43 35 34 35 36 40 45 44 38 34 32 32 41 57
6 4 4 3 5 30 42 24 35 74 88 100 67 95 100 100 100 99 58 38 34 30 27 23 21 20 19 27 42 52 54 68 71 63 58 54 49 47 47 44 44 42 38 34 31 41 55
6 4 4 3 20 43 52 35 80 67 94 99 100 97 100 100 99 100 99 97 75 68 64 56 47 39 34 27 22 20 42 47 44 48 65 69 62 57 53 48 47 42 39 34 33 39 55
6 4 4 5 42 45 49 62 86 84 86 100 94 90 97 100 99 96 100 100 100 99 100 98 95 92 92 81 53 38 24 21 33 41 40 42 58 66 64 60 56 51 45 41 33 32 59

GFSGBSN_500_rhum_045.txt.gz
RH
5 5 5 5 5 3 4 5 5 11 41 15 14 19 26 37 59 51 97 85 81 81 93 95 96 99 92 100 79 24 21 33 100 97 79 37 18 47 51 53 52 53 95 98 98 94 98
5 4 4 4 4 3 3 3 7 14 44 13 15 25 30 44 66 43 85 100 87 71 80 84 94 88 100 100 100 66 27 24 88 97 89 69 26 25 59 53 56 48 68 97 99 77 96
6 5 4 4 4 3 2 2 8 15 40 17 16 24 32 34 74 86 39 44 79 67 96 82 78 96 94 100 100 83 68 29 54 100 100 80 54 19 36 62 52 54 54 82 92 89 95
6 5 5 4 5 3 2 2 9 21 38 23 28 24 28 59 94 100 69 38 70 65 83 93 72 80 100 100 100 89 73 80 41 100 99 95 68 37 25 60 57 52 54 52 58 93 96
8 7 6 5 5 3 3 2 4 35 39 26 27 28 31 46 78 100 88 76 54 78 75 67 85 98 88 83 94 60 74 55 48 77 93 99 76 46 30 32 74 57 54 51 46 68 97
10 9 7 6 6 4 4 2 2 30 39 25 26 29 32 39 65 96 64 86 92 82 65 59 71 79 76 69 70 53 68 58 92 100 100 96 96 53 27 15 18 36 48 50 49 51 94
10 9 7 6 6 4 4 3 2 19 43 25 26 22 28 34 48 47 52 84 86 74 67 52 49 62 59 49 49 48 69 82 99 100 84 91 83 46 30 17 18 46 73 62 57 54 86
10 12 7 5 6 4 4 3 2 9 46 22 27 21 23 33 46 48 45 38 77 81 79 63 28 36 50 58 67 100 100 88 74 98 98 100 69 48 35 23 18 33 60 65 66 58 71
12 12 6 5 5 4 4 3 3 3 42 20 23 25 21 29 45 63 63 84 45 36 40 40 49 61 57 75 100 100 100 96 64 86 99 92 79 57 40 29 20 16 26 66 65 62 55
15 11 6 5 4 4 4 3 3 3 25 35 12 19 30 26 32 43 46 92 99 89 91 98 97 78 50 43 90 84 81 79 60 89 100 90 71 56 39 36 34 22 27 66 78 57 60
16 8 5 5 5 4 4 3 3 3 8 45 15 13 30 25 20 28 50 72 70 95 100 99 97 100 100 100 99 84 100 100 86 96 95 65 44 40 37 39 39 43 48 54 78 70 55
17 7 6 5 4 4 4 3 3 3 3 46 20 13 18 37 15 28 46 55 56 52 87 96 99 99 100 100 73 72 98 91 89 54 40 43 38 32 35 36 36 50 73 89 73 84 68
16 7 6 6 5 4 3 2 2 3 3 11 44 15 15 28 22 26 37 43 42 39 47 55 96 96 85 100 100 71 63 49 46 43 43 65 54 66 78 71 77 83 82 96 95 88 70
15 7 6 6 5 4 3 3 3 3 4 3 41 19 14 18 20 27 32 36 36 51 82 96 100 69 48 41 92 80 88 76 36 35 56 57 48 59 99 84 79 79 98 95 82 67 70
16 7 6 6 5 4 3 3 3 3 3 3 8 44 13 17 20 24 31 46 40 30 66 42 72 80 35 36 60 93 71 76 71 44 53 66 70 78 80 75 79 88 88 98 99 96 87
15 8 7 6 5 4 3 3 3 3 2 4 4 54 18 18 19 26 29 38 36 35 49 54 61 72 96 98 98 83 78 94 91 88 84 95 96 96 94 94 99 100 100 100 98 92 88
12 8 8 6 5 4 4 3 3 3 3 5 5 19 43 16 14 18 23 26 33 32 29 39 45 53 59 91 100 97 81 89 94 93 85 82 92 100 100 99 100 100 92 93 100 96 81
13 8 8 6 6 4 4 3 3 3 2 5 5 10 51 34 18 12 16 25 27 32 36 25 25 28 38 43 51 58 76 98 89 73 75 84 98 100 100 97 99 91 99 100 100 94 86
12 11 9 7 6 5 4 3 3 3 3 4 5 5 33 55 26 19 19 22 23 30 37 31 26 27 33 34 42 51 51 63 84 97 98 95 91 100 97 87 90 85 96 100 94 96 94
14 13 10 7 6 5 4 3 3 3 3 4 7 4 8 45 38 26 23 26 26 34 33 30 27 34 41 51 50 54 53 58 62 64 69 77 82 86 91 95 98 98 100 100 96 94 93
22 16 11 8 6 5 4 3 3 3 4 6 12 9 9 30 58 36 23 23 22 26 30 30 36 38 47 54 55 60 63 61 65 73 75 76 76 82 87 85 84 82 78 76 85 99 98
30 19 11 8 7 5 4 3 3 3 4 7 7 10 13 30 70 38 32 22 21 22 31 40 45 40 40 45 46 39 61 67 74 78 89 94 85 86 87 79 72 69 67 63 60 73 82
28 20 14 10 8 6 4 3 3 3 3 7 12 14 26 17 100 65 34 50 32 38 43 43 42 44 52 58 60 51 39 68 72 78 81 87 80 59 52 45 43 47 48 54 55 53 50
41 20 16 11 9 7 4 3 3 3 4 4 11 20 42 36 48 99 39 39 53 46 61 54 38 34 37 51 62 70 66 80 78 61 52 42 51 60 66 57 52 53 51 50 45 46 45
44 24 20 13 10 8 4 3 3 3 3 6 17 24 34 75 44 76 99 60 43 42 58 61 55 35 31 30 42 58 83 89 85 76 55 34 34 33 31 35 50 42 37 38 45 36 39
36 31 24 16 14 9 4 3 3 3 3 8 31 57 60 74 80 69 97 100 55 30 34 43 41 36 31 28 30 41 63 83 74 60 50 38 34 34 35 36 38 44 46 44 43 47 40
45 37 26 18 17 9 5 3 3 3 4 15 41 61 69 79 90 64 88 100 100 77 26 30 30 27 28 26 30 37 47 58 69 77 74 61 53 45 35 33 35 42 44 48 42 40 38
50 37 30 21 16 11 4 3 2 3 4 20 54 66 79 74 89 99 52 86 96 99 57 31 29 26 25 26 26 24 24 28 39 53 60 65 68 67 58 51 49 43 45 46 45 46 53
44 40 36 25 18 13 5 3 3 2 6 26 61 76 85 74 88 99 98 83 93 94 99 57 28 26 25 25 26 29 30 30 25 23 27 47 50 52 56 65 67 60 52 50 45 42 39

GFSGBSN_500_rhum_048.txt.gz
RH
13 16 16 9 6 6 5 4 3 2 6 26 23 21 25 26 34 39 63 36 94 87 69 76 92 92 83 55 36 34 23 29 93 100 100 91 28 21 43 42 49 50 64 96 96 97 97
12 13 16 10 6 6 5 4 3 3 7 26 24 23 24 32 40 41 52 49 37 90 80 66 86 100 96 68 44 49 28 27 39 99 100 96 46 21 40 47 49 47 50 93 97 96 94
22 13 16 11 7 6 5 4 3 3 13 26 24 25 26 32 42 49 53 69 52 67 73 79 90 93 100 99 100 81 38 27 29 67 97 99 64 25 23 52 56 53 61 95 94 97 91
31 18 18 9 6 6 5 4 4 3 11 28 27 27 30 29 45 50 32 64 74 55 98 86 79 90 100 100 100 100 100 30 29 52 100 100 93 45 20 42 61 53 57 63 87 97 97
34 18 16 11 7 6 5 4 4 3 7 32 29 27 31 26 35 58 35 31 64 63 77 70 74 89 98 93 89 89 100 37 40 90 100 100 97 61 38 24 55 53 53 48 59 92 96
33 21 12 11 7 5 5 5 3 2 5 37 25 28 29 27 32 47 73 57 30 56 63 62 72 75 99 98 91 77 100 99 77 98 100 100 99 83 50 20 18 24 43 46 50 59 88
32 25 13 11 7 6 5 5 4 2 3 26 21 25 31 23 31 59 87 89 59 26 36 49 72 67 80 82 79 62 100 52 44 87 98 98 90 60 47 32 17 21 49 41 40 46 70
30 26 14 9 7 6 6 5 4 2 3 16 27 18 32 22 35 35 77 100 100 39 22 41 61 55 57 48 54 81 100 83 100 87 99 92 74 77 65 43 23 25 43 66 60 55 53
34 28 13 11 7 6 5 5 4 3 3 6 34 17 31 21 37 40 53 53 82 97 45 45 51 53 43 40 45 100 100 100 75 74 100 100 81 84 73 48 32 18 17 31 57 58 53
36 32 13 12 7 7 6 5 4 4 2 3 32 13 29 22 37 42 52 55 57 98 67 45 81 64 66 30 55 100 100 100 100 100 98 91 100 97 63 39 25 18 16 16 24 48 52
42 31 19 10 7 6 5 5 4 4 2 3 16 17 22 19 27 36 49 47 43 74 99 96 61 98 100 45 75 100 100 100 100 100 100 96 90 65 51 42 33 24 20 16 14 26 43
44 32 19 14 8 7 6 5 5 5 3 3 3 34 15 20 21 31 38 44 40 79 95 100 100 99 100 43 77 100 95 100 100 100 98 84 72 60 53 41 33 32 27 25 22 20 24
51 35 18 15 10 8 6 6 5 5 4 2 3 26 12 20 20 28 27 36 50 62 87 69 84 92 72 63 74 65 75 99 95 92 99 91 61 47 52 48 43 38 33 28 29 29 16
56 38 17 15 9 7 6 6 5 5 4 2 2 5 24 17 26 23 24 32 40 63 61 51 74 91 63 74 65 80 88 88 85 91 64 46 40 34 32 33 30 31 31 36 45 37 53
54 41 17 14 10 7 6 6 5 5 4 3 3 3 37 14 23 25 24 29 32 40 42 89 41 50 44 77 96 99 49 48 57 60 53 42 44 47 51 51 62 67 62 63 57 62 64
54 48 29 17 16 8 7 6 5 5 5 4 3 3 5 31 18 24 24 25 34 35 37 49 76 72 57 83 95 85 77 46 38 40 40 45 49 42 59 81 67 67 87 71 75 75 67
50 55 42 26 15 9 7 6 5 4 5 4 3 4 7 41 24 16 21 24 29 35 30 39 46 72 95 93 87 81 72 56 44 24 20 20 24 45 66 64 74 73 78 72 95 94 80
58 58 50 29 20 10 10 7 4 4 4 4 3 4 5 35 47 25 16 18 23 27 30 23 23 35 56 73 78 86 76 90 77 64 55 66 77 86 83 91 84 70 74 94 100 98 97
65 60 58 44 22 14 11 7 4 4 4 4 4 4 6 5 55 40 24 21 22 22 22 30 26 21 25 28 34 40 65 86 84 82 80 78 80 84 89 85 77 90 85 97 99 99 93
66 66 63 47 25 17 12 6 5 4 4 4 3 5 7 8 27 70 42 30 32 27 28 34 29 24 21 35 44 46 45 48 59 76 79 77 73 79 90 90 92 99 97 100 100 85 90
59 70 59 51 32 16 12 7 5 4 4 3 3 5 8 9 18 75 56 38 34 33 30 29 31 25 29 34 45 47 47 48 50 58 66 76 83 84 95 95 86 81 91 89 91 99 86
57 69 58 55 43 19 12 8 5 4 4 3 3 5 8 22 21 82 74 68 40 36 30 30 30 32 38 44 50 44 40 59 57 67 70 72 76 75 82 91 89 81 80 76 75 78 66
61 73 57 55 38 22 13 9 5 4 3 3 2 9 15 20 25 42 100 80 77 48 47 50 50 48 58 59 59 50 44 46 60 67 77 80 84 81 78 83 81 74 72 70 65 62 60
67 68 58 54 39 24 16 10 6 4 4 3 3 8 26 24 26 30 71 100 82 87 59 70 66 47 51 54 67 72 76 60 74 73 78 76 78 83 81 73 63 55 53 52 54 53 54
78 71 60 55 44 30 20 17 8 4 4 3 3 5 30 50 40 36 40 98 84 69 78 61 71 68 43 37 40 50 73 88 90 87 68 60 49 36 39 36 42 56 52 48 46 47 44
78 66 60 56 46 37 27 20 15 6 4 3 3 4 32 53 62 69 76 50 100 67 52 60 63 60 60 47 35 33 41 68 81 77 78 68 41 34 34 33 35 43 65 48 39 44 50
80 79 70 61 52 41 32 26 16 10 5 3 3 4 24 58 69 77 92 60 67 100 76 53 44 46 44 36 30 27 43 57 62 80 79 64 50 41 37 33 36 38 41 52 49 43 49
91 83 70 60 50 41 36 30 20 15 5 3 3 9 34 63 69 75 87 88 62 78 100 93 57 40 35 30 26 28 26 32 36 52 62 67 72 69 58 52 48 39 42 47 49 49 47
96 74 58 54 48 43 36 31 21 16 5 3 3 15 52 65 71 81 87 94 71 77 88 99 97 66 37 32 27 27 26 27 27 28 30 33 46 55 60 66 67 60 52 46 47 47 51

GFSGBSN_500_rhum_051.txt.gz
RH
30 26 21 16 12 8 6 5 6 5 3 4 23 20 21 22 29 40 54 71 26 31 100 88 72 83 75 78 60 40 34 43 90 100 94 95 73 24 30 26 36 36 63 99 98 94 98
29 31 24 15 12 9 7 6 6 5 3 5 24 20 21 24 33 37 44 92 26 32 61 91 79 64 76 81 93 36 36 30 53 99 94 93 79 39 25 34 34 34 40 80 86 97 93
29 33 23 16 13 12 8 6 6 5 4 3 21 18 25 24 38 38 40 97 30 24 60 72 76 92 99 98 78 53 29 30 33 81 100 98 100 58 24 39 45 39 46 61 79 97 98
34 34 24 16 15 13 8 8 6 6 4 3 17 16 21 23 31 33 35 90 36 34 74 72 66 91 100 100 72 56 61 35 31 65 100 100 100 86 28 29 54 53 56 57 85 95 96
36 34 28 16 16 14 11 9 7 6 5 3 15 16 19 34 25 31 51 78 41 23 50 60 66 100 99 96 97 93 78 82 32 42 100 100 100 99 46 22 49 52 47 59 56 76 96
39 34 30 22 16 13 12 10 7 7 6 3 11 16 19 40 26 31 42 85 53 25 39 42 64 94 94 100 99 100 96 75 40 38 100 100 100 99 57 36 20 16 17 36 52 53 71
40 39 30 24 16 11 14 10 7 7 6 3 4 18 18 41 36 41 44 83 90 44 32 42 62 97 67 84 87 73 85 93 42 34 92 100 98 69 70 38 22 22 34 39 39 46 58
39 39 31 24 17 13 14 11 8 7 6 4 3 21 16 28 38 41 45 76 92 70 50 40 53 62 52 56 71 100 95 90 46 41 100 100 90 90 88 45 30 24 24 40 49 46 45
41 41 33 26 18 14 14 9 8 7 7 5 2 20 15 20 37 39 48 52 98 87 64 57 43 44 43 42 65 100 100 100 100 60 91 92 96 92 88 52 34 25 23 35 52 52 48
42 41 39 31 22 18 12 11 8 7 7 7 3 7 14 19 32 36 41 56 95 85 67 93 96 41 34 35 70 97 100 100 100 100 100 99 100 95 82 57 44 32 22 25 41 57 49
40 44 42 34 24 17 12 12 8 6 7 9 4 3 20 17 24 31 37 65 84 76 94 100 100 51 45 71 85 84 100 100 100 100 100 96 90 89 82 69 52 44 29 23 23 25 43
41 48 44 40 32 26 17 14 8 6 7 9 5 2 18 13 20 30 31 56 62 73 75 74 97 48 94 93 91 98 88 62 65 100 100 95 95 97 88 72 57 43 30 19 16 16 14
47 50 45 46 42 29 17 14 8 6 6 9 6 3 5 17 19 22 28 32 56 61 47 37 34 43 84 97 87 100 86 98 92 96 96 100 94 98 95 61 42 33 25 22 20 18 15
52 50 47 49 50 41 20 15 7 8 6 7 8 4 3 22 16 21 27 26 38 46 46 38 38 29 49 60 88 98 100 100 99 100 74 71 69 67 63 44 38 35 32 27 24 22 21
54 46 53 56 57 50 31 14 7 7 6 6 7 4 3 6 21 20 26 30 34 36 67 55 68 67 58 55 63 93 75 90 98 98 84 80 61 49 43 46 46 37 35 34 37 32 24
49 44 62 62 56 51 36 16 9 8 6 5 6 4 3 3 31 19 24 27 33 35 46 62 89 76 100 90 85 73 70 80 51 58 69 71 60 48 43 43 36 33 37 33 31 33 41
45 52 58 61 58 45 35 17 11 8 6 5 4 4 4 3 11 35 22 24 30 37 32 50 61 89 94 98 73 58 41 46 65 70 62 58 49 50 50 39 48 53 42 48 62 61 51
51 49 62 55 59 44 38 26 13 8 8 5 5 4 4 3 6 41 35 22 21 32 33 29 40 51 82 81 96 80 52 32 32 43 50 48 58 43 59 68 78 73 75 81 80 66 73
54 52 67 64 58 48 40 30 16 11 14 6 6 5 4 3 5 22 53 32 21 23 33 31 24 28 39 46 54 85 99 100 88 71 64 47 35 64 77 88 69 64 68 81 75 71 57
62 67 65 70 62 53 42 36 24 19 17 10 7 5 4 4 6 9 62 49 29 29 30 37 31 25 27 30 30 37 50 82 94 87 86 82 76 74 79 81 72 72 84 83 72 58 57
56 66 65 62 61 58 43 40 36 25 18 11 9 7 4 5 5 16 44 75 46 31 31 36 38 32 29 39 48 48 45 44 50 74 86 80 82 83 83 76 78 77 75 75 69 79 69
62 72 63 67 63 52 46 46 36 29 18 9 8 10 4 8 7 21 20 81 62 41 38 35 36 31 33 43 48 48 48 46 48 51 53 59 71 86 92 89 84 78 75 76 73 72 73
75 74 70 65 62 63 51 46 39 30 19 7 7 9 4 6 17 23 22 58 83 55 39 34 34 38 42 52 59 50 43 36 41 50 54 58 62 66 65 67 66 62 85 76 72 72 74
70 66 81 68 62 57 46 43 40 27 20 9 6 6 4 6 26 43 50 42 100 71 52 43 43 53 55 56 61 64 65 52 39 46 61 70 76 75 75 78 67 63 60 56 53 58 61
70 68 74 70 62 53 42 40 40 32 25 14 6 4 4 7 37 53 53 59 83 99 84 62 58 68 52 53 54 69 77 75 70 55 72 74 78 66 58 62 58 56 66 71 68 54 52
78 75 81 76 66 52 40 42 40 34 29 17 9 4 3 7 28 40 63 68 54 96 98 80 76 78 74 55 44 40 43 63 68 87 88 86 67 57 48 33 32 33 35 53 62 43 45
82 77 81 79 73 52 42 43 39 33 25 13 11 3 3 7 27 53 58 87 83 44 92 84 70 78 77 70 59 44 39 43 50 75 85 75 71 62 41 33 34 35 38 42 55 49 44
79 78 83 84 88 51 47 44 37 28 20 16 10 3 2 6 32 49 62 73 79 70 58 99 88 70 62 56 50 38 28 28 38 52 61 71 77 82 70 51 52 41 37 39 43 51 51
87 81 90 91 87 56 48 43 36 27 21 15 11 4 2 5 26 49 66 71 87 99 68 85 100 96 79 52 39 34 30 32 33 33 34 34 36 47 61 70 76 72 56 47 42 46 49

GFSGBSN_500_rhum_054.txt.gz
RH
25 28 28 26 18 17 14 18 14 11 8 7 5 6 16 21 24 30 37 44 36 18 14 77 89 72 78 82 94 70 44 44 100 100 98 95 88 78 29 24 25 35 54 81 98 98 97
27 28 28 29 22 18 15 18 13 10 8 8 5 5 15 19 24 30 34 51 42 22 39 45 89 79 57 72 83 92 53 42 78 100 100 100 88 86 42 31 25 24 16 51 78 97 98
26 30 32 30 25 19 17 18 14 10 9 9 7 5 16 21 27 36 37 57 50 25 44 63 66 75 86 92 76 80 70 46 54 100 100 100 100 92 72 30 32 23 28 50 69 94 98
30 30 31 31 24 20 20 17 16 11 9 9 8 5 15 20 29 37 39 61 66 33 37 59 83 88 99 82 83 74 70 45 48 86 100 100 100 92 92 35 40 39 32 63 74 89 96
34 31 32 32 25 21 22 18 16 11 10 10 10 4 14 17 31 37 37 75 80 45 31 56 86 70 92 100 98 71 80 48 46 64 98 100 100 97 97 46 40 35 43 25 54 84 94
35 33 37 32 27 23 23 18 17 12 10 10 12 5 10 16 29 33 44 88 86 59 32 39 51 77 100 98 100 81 93 47 62 52 87 99 100 94 92 78 44 29 31 30 37 45 79
37 39 41 33 32 24 26 22 17 12 11 12 13 5 9 15 25 30 59 93 91 75 68 50 54 56 77 100 99 100 100 79 62 42 93 98 93 74 79 81 53 32 39 47 44 49 64
41 40 42 39 34 28 30 25 19 12 11 11 14 7 4 14 22 29 57 82 85 86 95 56 43 53 65 76 100 94 100 100 60 38 100 100 99 100 99 95 65 36 27 36 55 52 60
43 43 42 41 35 37 34 28 21 13 11 12 12 7 3 15 19 26 46 75 72 100 99 99 45 38 45 55 84 87 100 100 70 34 99 99 99 91 88 96 75 42 28 28 43 49 47
54 45 43 43 37 38 39 35 23 15 17 10 10 6 3 9 18 26 30 62 71 95 100 100 86 38 34 39 86 82 100 89 50 30 87 100 100 94 89 99 80 42 25 28 46 53 40
59 44 46 46 41 37 40 36 25 18 13 11 10 6 4 6 17 22 28 36 54 64 79 86 100 65 51 73 67 82 76 81 51 61 100 100 96 82 92 95 78 36 36 29 26 37 33
59 54 48 43 46 39 37 32 27 15 12 13 11 7 4 3 15 20 27 27 43 50 43 55 87 100 80 60 92 100 100 79 48 95 91 99 99 100 99 100 71 47 33 22 19 24 22
62 50 51 45 51 38 32 29 27 18 16 18 14 11 7 3 8 18 24 29 34 41 34 39 31 49 87 73 99 100 100 99 100 100 98 100 99 91 99 99 72 54 40 31 24 20 15
67 54 50 49 49 39 32 31 28 24 21 19 16 16 10 3 4 24 21 28 32 57 42 30 44 39 73 64 100 89 100 99 100 100 98 95 94 97 94 83 69 59 46 40 32 22 17
58 52 48 52 45 43 43 32 30 26 26 19 14 16 10 5 3 19 19 26 36 36 71 50 48 63 70 86 90 100 96 94 90 100 98 94 90 85 86 79 73 56 48 39 31 23 22
54 48 48 52 51 50 52 39 33 30 24 12 8 11 10 9 4 5 29 24 31 35 54 74 61 82 98 95 76 72 99 99 93 100 94 89 77 71 77 76 55 45 42 34 30 29 25
54 50 52 50 54 56 55 44 38 28 24 8 7 8 10 7 4 5 37 25 28 38 38 60 77 92 92 93 69 39 55 82 91 92 87 77 75 64 54 45 42 36 29 32 34 30 25
55 58 54 52 53 55 49 47 39 30 24 13 8 7 10 8 4 7 21 41 24 32 36 42 66 85 93 100 92 61 33 49 55 57 76 59 50 47 38 36 39 44 44 50 45 45 48
63 60 56 51 50 53 48 53 42 32 30 23 12 6 8 7 5 4 23 56 30 24 34 34 36 61 91 74 98 82 59 45 65 68 60 60 60 53 46 46 48 45 53 58 62 72 58
67 63 53 51 50 51 48 45 36 33 32 24 18 13 10 7 5 4 14 65 45 27 30 34 31 29 39 52 56 84 87 82 66 46 49 56 55 55 49 50 82 79 90 93 92 55 72
79 67 54 56 60 52 50 42 38 34 31 23 21 15 8 9 5 7 12 46 65 36 32 32 34 33 29 29 31 40 53 76 100 94 95 90 97 95 89 85 88 87 85 78 61 74 63
81 69 50 54 58 55 56 43 41 32 30 22 20 12 9 6 5 12 18 24 68 55 37 36 40 42 37 34 34 42 53 55 57 65 86 95 100 100 96 100 100 95 90 85 82 82 64
81 71 52 54 57 73 61 55 52 32 24 17 12 10 7 6 4 11 21 33 49 75 48 44 47 46 47 48 46 45 48 47 52 57 58 56 57 60 65 74 83 84 98 88 86 85 79
81 72 57 54 58 72 65 66 63 34 27 20 13 9 6 4 4 10 20 38 33 82 65 52 47 40 46 51 53 52 53 52 51 50 58 67 73 74 73 81 68 69 66 67 66 72 65
86 80 66 56 64 69 70 70 72 39 32 22 13 8 5 4 4 14 35 48 30 68 82 58 49 40 50 52 60 59 59 60 60 49 46 54 72 78 76 79 74 74 72 68 63 61 51
95 80 86 76 71 73 80 66 60 41 33 23 14 7 4 3 4 13 38 55 63 38 87 75 60 54 58 56 59 60 68 76 73 74 77 70 75 76 70 59 49 43 42 43 54 61 61
98 95 100 84 76 79 83 70 60 39 30 23 14 8 5 3 4 8 33 54 64 68 44 53 84 71 62 69 56 47 48 46 47 53 73 88 86 88 86 60 52 37 34 36 37 45 58
100 88 93 84 82 80 77 70 69 40 30 20 14 8 6 4 4 8 14 39 62 76 84 51 80 82 83 64 72 69 59 45 40 47 65 72 83 87 80 69 64 58 47 43 40 38 44
98 96 94 86 92 84 77 70 57 36 27 20 13 10 6 4 4 5 12 46 46 40 90 80 47 86 78 73 64 64 56 44 37 39 44 47 41 44 54 62 66 73 71 63 52 43 40

GFSGBSN_500_rhum_057.txt.gz
RH
17 33 28 29 28 27 20 16 17 14 9 10 11 12 6 11 15 30 31 38 57 58 41 28 28 82 71 69 76 77 83 36 52 100 100 100 86 47 48 22 18 49 62 91 99 98 97
18 32 31 33 31 28 21 17 19 15 10 11 11 11 5 6 17 30 40 55 61 66 40 42 49 64 75 62 70 91 100 55 41 100 100 100 84 60 52 27 21 17 38 75 100 97 98
28 30 35 36 37 29 23 18 20 13 10 12 15 10 5 6 16 32 54 62 74 78 42 47 71 65 69 74 60 68 100 66 40 99 100 100 100 87 64 35 28 18 24 42 92 99 93
29 26 41 37 40 32 25 22 18 14 13 12 16 12 5 4 17 31 53 65 83 92 50 42 69 65 75 86 80 62 100 76 50 96 100 100 100 100 84 60 38 25 26 43 62 87 82
45 45 44 39 40 31 26 26 20 15 17 12 13 13 7 4 15 29 46 67 86 98 78 42 50 88 99 100 83 68 100 70 47 87 100 89 98 99 93 81 49 25 23 30 44 91 84
60 53 47 41 38 32 25 25 23 17 17 11 14 15 12 6 11 27 33 60 81 100 97 57 59 65 79 90 94 64 97 69 51 91 100 100 100 100 96 89 65 36 22 25 32 48 66
65 59 56 43 38 37 26 23 22 18 15 11 16 17 18 5 8 24 29 44 76 98 99 72 50 54 68 100 92 66 100 87 67 96 98 100 98 88 73 76 78 42 28 26 31 27 52
68 63 54 48 39 41 27 22 17 18 13 12 16 17 18 7 7 20 29 37 69 73 84 91 44 45 45 76 99 92 100 90 80 85 100 98 100 97 91 88 80 67 36 31 54 42 49
61 65 56 54 44 42 30 22 20 20 13 11 13 15 16 9 6 16 30 31 57 42 67 99 42 34 40 38 81 100 100 91 86 83 100 94 100 96 100 96 92 82 41 37 42 52 44
50 64 67 57 48 46 31 26 23 23 14 8 9 9 13 8 6 14 26 27 50 35 70 84 89 52 44 57 72 78 100 99 75 62 100 100 100 96 88 87 83 89 58 38 40 50 44
48 59 63 60 50 45 31 29 24 21 18 7 6 11 12 8 4 13 25 29 47 32 55 46 92 75 96 74 75 75 88 100 65 69 100 100 96 96 87 80 72 97 94 59 32 32 28
55 60 67 59 51 41 33 35 30 24 18 11 7 9 10 10 4 7 21 32 44 36 43 34 50 71 69 68 88 84 86 68 57 97 100 100 96 97 100 96 100 100 58 45 30 25 21
57 62 73 53 52 41 36 39 36 31 20 16 10 9 10 13 6 4 21 30 44 45 40 49 43 72 98 97 98 56 66 53 47 91 99 99 96 100 99 96 99 94 72 44 28 24 19
60 64 71 52 52 45 40 42 38 27 20 21 17 14 12 15 10 4 19 26 37 54 49 40 54 81 100 72 98 87 40 49 42 88 100 100 99 98 90 85 83 80 67 44 33 30 20
63 71 68 51 51 48 44 43 40 25 20 23 15 13 15 15 11 4 17 23 32 43 68 65 68 85 100 94 81 84 36 34 47 74 100 97 88 77 91 97 90 73 66 48 36 28 19
66 73 65 53 56 50 46 43 34 24 21 20 11 9 12 12 10 4 9 31 29 36 59 79 81 98 99 96 100 100 70 88 100 100 98 93 87 84 82 89 80 70 65 54 46 38 30
71 79 64 59 57 51 45 43 33 26 24 20 11 7 8 8 9 5 8 40 27 38 43 71 94 100 100 96 69 89 88 94 99 100 100 96 95 93 93 72 76 76 60 49 44 37 31
74 75 67 67 60 53 47 45 31 29 23 18 10 6 5 7 8 5 6 25 34 38 36 47 82 100 100 99 75 47 72 73 83 98 97 84 82 80 86 89 83 73 49 43 39 33 30
75 67 72 68 60 58 54 54 41 30 23 17 12 6 4 6 7 5 6 15 42 32 38 35 48 90 100 100 90 45 60 79 68 90 90 78 69 60 50 50 45 37 43 39 35 32 23
83 67 67 70 59 61 61 57 54 40 27 19 15 8 5 6 5 5 8 11 53 36 36 44 36 46 78 87 100 82 58 55 52 50 68 63 60 50 46 48 40 36 45 50 53 43 46
93 78 71 68 59 62 68 62 60 52 39 29 22 13 4 5 4 4 9 19 39 50 35 48 45 40 43 54 69 99 97 64 48 53 54 55 62 66 65 61 56 50 51 63 51 63 48
94 85 74 74 66 65 64 66 65 53 44 33 30 18 5 4 4 4 8 15 21 52 37 33 37 41 42 36 40 38 57 87 100 100 93 79 64 60 70 74 84 79 85 91 91 97 74
96 91 77 75 72 71 63 68 68 56 46 32 24 16 6 4 4 4 11 17 18 24 49 36 41 38 37 40 37 40 46 56 56 62 78 93 98 98 98 95 92 92 99 90 92 98 86
96 96 84 83 78 75 75 77 70 61 50 37 22 12 6 4 4 4 10 25 26 17 57 47 43 46 47 50 43 40 48 61 60 58 60 64 62 62 70 70 67 72 75 77 78 82 71
94 96 85 82 88 94 84 82 72 60 58 40 24 12 7 4 3 3 7 33 40 33 24 64 47 50 54 45 50 42 48 55 57 55 54 52 48 56 60 74 77 76 77 75 74 71 63
97 95 87 89 90 85 88 89 71 60 54 40 38 12 8 4 3 3 6 31 48 53 41 48 66 50 51 50 61 48 46 62 65 76 72 67 63 56 56 69 76 74 69 54 56 57 59
98 100 96 88 88 83 97 92 74 63 47 53 18 12 8 4 3 3 4 15 43 54 63 58 48 62 46 58 73 60 58 59 67 71 67 73 90 91 88 91 92 70 60 42 40 39 38
98 100 98 94 94 92 98 93 81 62 44 50 22 12 8 6 4 3 3 8 29 34 46 82 59 65 74 56 68 78 62 53 52 51 45 41 50 78 88 88 85 76 61 47 44 39 39
97 99 98 94 96 90 93 97 81 60 47 48 16 12 10 7 4 4 4 6 16 34 34 66 86 55 72 80 76 78 84 75 67 58 46 38 39 51 59 70 74 75 75 69 65 67 56

GFSGBSN_500_rhum_060.txt.gz
RH
46 36 30 27 39 35 35 27 24 15 13 8 8 8 14 18 8 9 23 39 60 62 82 53 37 41 35 60 96 98 100 100 79 50 100 100 99 79 52 49 63 73 61 66 100 62 87
51 49 41 31 38 41 35 27 22 16 13 8 8 8 15 18 8 9 25 34 59 72 84 50 45 63 60 61 40 70 86 87 100 95 91 100 100 96 40 38 68 62 88 76 80 95 81
54 54 47 43 47 42 35 31 21 17 12 9 7 7 12 16 7 10 24 30 56 77 83 56 47 63 80 93 82 43 48 70 100 98 85 100 100 99 71 36 42 58 88 90 72 83 96
43 61 58 53 52 44 36 33 20 16 13 10 7 7 12 14 7 8 23 31 50 70 73 66 52 53 62 91 88 73 62 60 98 66 95 100 100 96 99 61 38 52 99 97 94 98 98
40 56 61 58 59 45 37 34 19 17 15 11 6 7 10 14 8 7 19 32 54 43 64 68 48 54 70 83 86 77 60 79 99 58 97 100 100 100 99 48 41 43 51 91 97 100 98
44 44 64 63 61 47 37 38 29 19 17 13 7 8 8 13 10 6 18 35 46 40 62 79 52 52 59 100 78 95 57 85 100 93 87 100 100 92 99 78 55 49 28 32 41 63 75
51 50 66 70 65 56 41 42 32 19 16 14 10 9 11 14 14 6 16 32 41 44 50 71 75 46 43 74 64 77 100 100 86 89 98 100 100 76 77 86 65 54 41 30 26 28 52
56 52 65 76 68 61 47 45 37 21 16 15 13 11 12 17 17 6 15 33 38 29 35 49 53 36 40 79 76 69 100 100 100 100 98 98 98 100 100 97 74 55 50 35 32 31 41
64 53 56 71 74 59 46 44 31 27 19 16 12 10 12 13 16 6 15 36 37 25 37 53 57 40 38 79 75 100 94 81 85 92 100 100 100 99 99 94 96 70 85 42 29 33 31
69 56 55 76 79 58 52 42 28 34 21 15 12 8 6 10 12 6 9 39 42 30 30 52 65 56 73 84 87 100 88 78 68 100 100 100 99 99 100 94 98 100 85 62 34 31 37
79 62 62 84 73 57 57 41 29 33 21 14 11 6 5 9 9 7 10 32 49 42 35 48 73 74 56 68 88 87 84 83 91 98 100 100 100 100 100 100 100 99 99 94 55 45 30
95 67 74 86 68 59 60 46 31 30 20 15 10 6 4 7 8 7 6 26 48 46 50 56 88 93 55 62 84 100 100 91 99 100 100 100 100 100 100 100 97 93 92 97 79 47 35
93 82 76 92 64 63 57 49 35 30 19 16 11 5 4 5 7 6 6 21 40 55 52 66 100 100 88 45 53 89 96 81 94 99 100 100 100 87 84 94 82 92 89 87 76 50 36
78 89 79 97 68 61 56 47 37 29 19 18 11 5 5 4 5 5 5 19 42 63 52 78 99 100 100 100 44 54 73 71 100 100 98 93 75 85 85 83 79 67 74 80 67 56 41
76 93 86 98 81 61 58 48 38 27 20 19 12 5 6 4 4 5 5 15 31 50 79 73 98 100 100 100 62 25 42 64 99 92 97 88 90 81 87 92 80 72 72 60 50 44 34
72 97 94 98 84 65 58 52 37 26 23 18 15 7 6 4 4 4 4 12 27 37 68 98 96 93 100 100 52 44 27 49 80 93 89 96 100 84 87 89 70 64 72 68 58 48 38
73 96 97 98 81 70 60 55 38 33 27 23 20 13 7 4 4 4 4 9 25 34 49 88 98 84 99 100 90 29 26 50 73 76 98 100 100 99 94 77 76 76 65 60 53 43 38
81 96 97 97 84 72 66 58 45 38 31 31 25 20 8 4 3 3 4 9 22 29 36 59 100 89 95 77 86 57 44 60 80 100 97 99 99 100 94 92 84 77 72 64 53 47 46
82 93 97 96 95 72 68 63 54 47 43 37 27 21 8 4 3 3 4 10 14 32 40 40 71 97 95 76 57 53 67 72 98 100 99 90 91 96 94 86 74 70 66 66 56 46 38
99 92 97 96 96 83 68 68 59 50 40 34 27 18 9 4 3 3 4 10 12 34 31 41 47 75 98 92 63 68 65 59 68 96 83 82 78 70 69 68 74 81 78 68 48 37 36
98 98 96 96 96 91 69 67 61 51 41 33 27 20 10 4 4 3 3 9 14 34 34 30 41 42 49 72 93 54 80 75 72 88 96 89 75 61 54 48 41 40 41 38 33 40 26
98 93 96 97 97 96 75 65 64 54 43 43 34 23 12 5 4 3 3 7 13 23 39 29 35 41 37 43 69 98 83 61 63 68 75 65 64 63 60 53 48 47 47 45 41 43 45
98 98 97 97 96 96 85 77 72 57 51 42 41 30 13 6 4 4 3 5 15 11 36 36 30 34 42 41 39 44 57 89 98 96 80 61 51 43 41 46 52 67 76 74 75 73 71
98 94 97 98 96 95 94 81 73 58 50 43 40 36 11 8 4 4 3 4 15 19 14 41 33 33 34 38 40 38 40 50 60 56 62 82 95 97 93 94 94 90 90 79 78 79 78
98 97 97 98 97 95 95 89 84 60 50 42 44 33 12 9 5 4 3 4 11 27 24 18 46 35 45 43 36 45 40 43 53 60 58 57 58 58 57 62 65 66 67 69 72 64 59
98 95 97 97 97 96 96 93 92 66 49 42 45 41 12 10 5 4 3 4 8 25 39 28 25 43 37 48 49 42 42 47 50 55 56 52 50 50 48 48 56 64 71 72 73 68 67
98 97 96 97 96 97 96 94 89 85 53 47 45 42 12 11 6 5 4 4 5 14 19 50 52 36 53 42 49 50 51 60 63 66 75 82 83 81 82 79 64 60 67 69 67 52 46
98 97 98 97 96 96 95 96 86 77 62 53 47 38 15 14 8 5 4 4 4 10 20 22 56 56 45 65 46 49 68 64 73 75 80 73 60 56 69 85 84 78 80 77 62 49 43
97 98 97 97 96 97 96 95 86 76 68 59 42 32 28 16 9 6 4 4 4 5 13 29 32 52 56 47 68 58 58 69 65 68 67 61 51 47 51 55 65 76 82 82 81 76 65

GFSGBSN_500_rhum_066.txt.gz
RH
46 43 48 41 50 64 71 69 65 63 56 43 38 34 24 14 9 6 5 4 6 18 33 25 28 27 39 38 53 57 47 96 88 100 99 76 64 59 92 88 84 91 96 90 91 74 38
58 50 55 50 54 71 75 74 68 64 61 52 48 37 29 14 9 6 5 4 6 25 27 30 32 33 36 40 53 63 55 83 98 98 99 92 87 62 95 99 86 75 94 96 64 95 96
87 55 61 60 57 68 76 83 78 66 63 56 46 32 28 11 9 5 4 4 7 28 27 31 37 40 39 40 45 57 61 57 95 100 100 92 74 94 98 100 92 86 98 97 91 96 89
87 79 59 76 60 71 75 90 87 77 65 54 42 33 22 9 8 5 4 4 10 31 28 32 45 48 48 42 40 54 86 63 99 80 100 97 77 78 99 100 100 86 95 97 94 77 97
99 96 67 72 73 72 82 96 94 83 64 55 42 33 20 9 6 5 4 4 11 30 30 35 55 56 63 42 46 98 92 94 81 82 100 100 85 70 100 87 100 100 99 96 90 77 95
100 96 92 66 82 76 92 98 96 86 65 58 42 34 19 8 7 5 4 4 12 32 33 43 64 54 51 40 98 70 72 94 71 95 100 100 78 69 100 83 78 88 81 98 82 79 91
88 97 96 86 78 78 88 98 96 87 66 57 42 35 18 7 7 5 4 4 12 33 42 47 75 46 59 79 89 97 83 55 93 98 100 100 84 84 85 71 72 80 78 100 100 99 98
18 78 98 91 87 89 87 88 96 84 69 57 45 30 15 9 6 5 4 5 13 36 46 62 71 41 66 96 98 51 88 80 92 100 100 100 83 81 95 100 99 88 93 98 97 98 95
10 26 77 97 95 92 83 89 94 82 70 56 46 27 12 12 6 4 4 5 14 36 49 75 55 36 62 89 100 73 97 98 96 99 100 100 100 92 99 100 100 86 85 100 100 97 97
5 10 33 92 96 98 85 93 89 80 70 54 44 24 14 11 6 4 4 5 12 36 45 70 44 41 57 98 80 89 91 97 89 97 94 100 89 99 100 94 92 100 87 92 94 100 100
4 5 17 70 95 97 91 100 90 80 70 54 39 20 18 11 5 4 4 6 14 42 41 78 62 60 57 67 79 59 96 100 100 60 96 100 100 100 94 100 100 95 100 94 74 90 94
4 4 11 41 98 100 98 97 95 81 67 56 36 19 21 13 6 4 4 5 13 38 47 69 86 53 53 62 97 93 99 100 100 97 100 100 79 99 92 89 91 100 87 71 72 80 86
8 5 7 51 93 98 98 96 96 82 68 54 32 23 24 12 5 4 3 4 12 26 68 63 77 70 62 58 66 84 90 66 95 100 100 100 100 100 96 86 89 92 95 94 86 74 64
11 7 4 27 89 98 95 97 97 83 67 51 32 28 26 8 6 4 3 4 11 44 66 73 72 100 53 57 53 55 84 48 82 100 100 100 97 96 100 92 95 97 99 92 78 68 61
7 7 4 13 85 97 100 97 97 84 67 50 35 32 25 7 6 4 3 4 11 29 57 71 77 94 70 41 60 54 80 80 100 98 97 100 99 100 98 100 100 100 97 85 92 74 73
4 4 4 8 92 99 98 98 97 90 68 50 39 36 21 6 6 4 3 4 9 21 52 75 74 74 32 30 50 94 100 96 100 100 90 100 99 100 98 100 100 100 91 88 95 100 93
3 4 4 14 94 98 96 98 97 93 67 53 45 34 18 6 5 4 3 4 6 19 38 70 65 84 69 20 33 57 98 99 94 94 79 82 91 90 87 83 97 100 100 99 100 100 100
4 3 7 27 98 98 95 98 97 89 70 55 48 30 18 7 5 4 3 4 4 14 25 52 72 69 73 25 24 37 66 88 94 76 88 96 100 100 100 97 95 83 92 100 100 100 99
26 3 15 70 93 98 97 97 97 91 72 62 46 29 22 7 5 4 3 3 4 8 20 36 77 79 74 27 19 37 36 66 85 85 94 94 100 99 98 100 100 100 100 100 100 90 100
25 5 26 97 97 98 97 96 97 95 80 62 44 31 24 8 5 4 3 3 4 5 14 25 50 77 69 25 19 51 80 80 83 70 74 84 86 88 84 92 94 100 100 98 93 81 98
68 9 80 98 100 98 98 97 98 95 78 58 43 35 24 8 5 5 3 3 3 4 8 20 29 54 55 38 22 36 42 84 73 75 72 68 86 96 91 88 87 86 90 88 90 100 71
100 24 98 100 97 97 98 96 98 96 74 59 46 40 20 9 5 5 3 3 3 4 5 10 19 28 53 48 33 32 39 47 50 50 69 68 89 85 88 91 80 76 85 89 94 89 72
53 92 83 88 97 98 97 97 98 95 77 63 49 41 19 10 5 5 3 3 3 3 4 6 14 21 28 33 54 40 32 32 42 49 48 67 75 76 79 76 68 58 54 52 49 47 46
92 100 100 100 98 98 97 97 98 95 82 65 50 42 18 10 7 5 4 3 3 3 4 5 6 21 19 30 28 42 61 43 53 65 62 63 80 75 77 72 52 51 49 47 42 37 36
99 97 94 97 99 97 97 97 98 86 88 64 50 42 22 12 10 6 4 4 3 3 3 4 6 8 24 21 22 30 31 54 64 60 63 62 60 61 57 50 44 43 41 43 36 32 39
100 100 98 95 98 97 97 98 97 92 89 60 44 45 27 14 12 8 5 4 4 3 3 3 5 8 9 22 24 19 22 28 33 34 42 52 60 58 55 52 57 40 54 56 54 49 55
100 100 100 98 98 98 98 98 97 95 68 51 58 46 36 14 16 10 7 5 4 4 3 3 4 5 9 12 20 27 22 25 25 26 31 35 36 35 39 39 38 33 47 45 41 41 37
97 85 94 97 98 98 98 98 97 96 76 53 47 46 44 18 22 10 8 6 5 4 4 3 3 4 6 12 19 21 30 37 34 33 35 36 39 48 57 57 64 66 66 78 67 68 70
100 98 99 98 93 98 97 98 96 93 78 64 69 50 45 30 27 12 9 8 6 5 4 4 3 3 4 8 16 23 29 40 46 47 47 40 51 58 61 62 65 65 61 52 46 50 52

GFSGBSN_500_rhum_069.txt.gz
RH
78 95 91 94 69 62 58 48 59 74 77 86 79 66 54 44 30 16 7 6 4 4 6 16 28 29 43 53 40 33 40 48 64 89 69 100 94 71 44 42 100 62 72 97 98 92 89
70 71 91 96 97 64 57 59 70 79 82 93 85 68 54 44 31 15 7 5 4 4 7 20 30 33 53 65 54 37 44 55 56 92 100 100 96 96 52 56 94 68 90 98 91 98 84
12 40 76 80 85 90 58 66 70 80 86 96 88 69 59 42 30 13 8 4 4 5 8 29 34 40 69 71 67 44 39 58 48 97 100 100 99 88 64 60 82 79 95 100 95 77 98
5 9 21 61 90 93 74 58 74 74 93 97 87 69 60 45 30 11 8 4 4 6 13 37 41 59 70 51 69 48 46 63 50 95 100 100 89 96 63 67 79 87 98 99 99 97 85
5 8 6 19 67 89 95 66 86 83 93 97 89 68 58 47 26 11 7 5 5 6 18 37 52 65 38 49 55 82 75 80 74 88 96 100 100 92 59 72 83 100 93 99 98 98 97
8 6 9 5 18 47 94 96 98 91 88 91 92 67 58 44 19 13 6 5 5 8 24 47 71 38 34 54 98 84 57 70 90 92 73 100 100 78 69 82 93 95 95 100 95 97 96
22 16 10 11 6 20 60 97 93 90 85 83 93 67 60 40 16 13 6 5 5 11 33 63 58 37 35 71 100 58 74 89 100 73 75 100 87 100 100 51 91 98 83 98 98 98 96
31 25 15 11 12 12 27 88 98 99 100 83 94 68 61 37 18 12 6 5 5 10 37 75 55 46 43 98 92 82 94 88 87 96 100 94 54 82 100 60 86 98 100 100 100 98 98
41 38 31 15 14 5 16 49 96 98 100 93 96 70 61 31 20 11 5 4 5 16 39 73 57 51 61 99 96 95 90 84 83 76 98 92 45 98 100 100 82 96 84 99 100 98 99
43 38 36 32 12 13 9 26 87 98 99 96 95 70 61 26 21 8 5 4 5 18 36 64 60 52 47 59 99 99 100 82 64 92 100 99 88 96 100 98 84 72 90 99 100 97 99
36 33 29 28 28 10 12 19 72 98 98 96 94 70 60 27 22 7 5 4 6 17 45 60 72 52 42 55 99 100 94 81 93 100 63 74 89 100 100 100 99 76 83 84 99 96 97
24 21 17 16 16 23 11 14 49 96 96 92 95 72 58 32 16 6 5 4 6 16 55 61 81 56 38 62 99 99 100 100 68 99 100 82 93 100 99 97 83 75 78 83 96 94 100
8 11 16 14 13 18 21 11 48 91 97 100 95 74 53 35 11 5 4 4 7 12 65 64 77 66 51 61 79 78 97 84 83 100 89 92 94 100 100 95 86 91 92 95 100 99 95
4 4 7 10 11 11 22 16 28 74 97 98 95 75 51 34 8 5 4 3 7 13 57 64 71 86 53 64 57 62 89 85 82 100 97 100 100 87 81 86 80 98 100 100 91 83 80
52 13 4 5 10 9 14 17 37 89 98 97 95 72 50 26 7 5 3 3 6 10 58 61 75 83 52 58 48 60 65 81 96 99 83 66 75 86 85 87 87 73 84 84 82 84 83
100 100 44 4 6 7 11 10 47 92 98 98 93 67 52 19 7 5 3 3 5 9 37 54 61 73 36 46 49 68 58 87 92 92 82 69 73 77 81 90 94 93 68 76 77 95 94
100 100 89 6 5 56 10 16 77 99 98 98 91 68 49 15 6 4 3 3 4 10 24 50 48 62 26 28 31 68 68 99 90 96 100 88 91 85 99 89 96 98 98 90 85 90 89
100 100 31 6 66 35 8 50 85 98 98 98 91 74 44 12 6 4 3 3 3 9 19 38 51 46 31 50 93 70 85 78 89 98 100 100 100 93 89 91 80 95 98 91 96 90 87
99 83 10 49 93 78 9 50 95 98 97 97 92 75 33 11 6 4 3 2 3 5 12 26 46 45 21 46 70 89 89 99 98 95 100 84 76 75 69 75 86 81 91 100 99 99 98
83 51 32 98 99 19 48 61 98 98 97 98 94 66 29 11 6 4 3 3 3 4 7 16 34 42 26 22 36 52 54 78 88 91 93 89 89 89 87 82 87 83 89 88 78 89 98
69 40 74 100 100 23 66 95 98 97 98 97 95 60 31 10 6 4 3 3 3 3 4 9 23 49 40 17 20 28 38 37 86 73 70 72 89 85 84 85 87 91 94 86 79 97 84
21 93 100 96 38 90 100 100 98 98 99 97 94 55 34 10 6 4 3 3 3 3 4 6 12 30 40 43 18 27 32 52 70 68 58 61 66 76 75 78 88 85 78 86 89 84 83
94 100 85 85 89 100 98 98 98 99 98 95 88 57 32 10 6 5 4 3 3 3 4 4 6 18 33 38 22 22 27 37 53 57 40 42 46 68 76 76 70 65 64 64 68 77 77
100 100 100 100 99 99 98 98 98 98 98 96 91 58 29 10 6 5 4 3 3 3 3 4 5 9 15 29 38 36 32 34 32 30 34 40 38 43 80 87 77 81 68 57 52 50 56
100 100 100 99 99 79 95 98 98 98 98 96 94 60 27 11 8 6 4 4 3 3 3 4 4 6 8 15 20 25 29 40 49 47 45 55 64 61 55 58 56 58 62 60 60 70 69
100 94 96 100 99 99 95 98 98 97 97 96 89 58 29 13 10 7 5 4 4 4 3 4 4 4 5 6 8 15 18 22 26 28 40 52 51 60 64 59 47 42 58 64 64 58 60
100 100 99 96 100 99 98 98 98 98 97 96 91 50 33 15 14 8 7 6 5 4 4 4 4 4 5 6 8 8 15 19 19 19 24 29 31 32 33 35 36 40 40 43 39 40 40
98 99 98 100 92 96 98 98 99 99 96 96 91 46 40 20 15 11 10 6 6 6 4 4 4 4 4 5 6 8 10 12 16 23 28 32 34 34 39 40 48 56 53 52 45 46 47
99 96 100 100 98 97 97 97 98 99 97 96 79 84 48 28 18 15 11 8 7 7 6 5 5 5 4 4 5 5 6 10 11 14 18 36 40 42 40 45 65 86 84 92 90 86 79

GFSGBSN_500_rhum_072.txt.gz
RH
7 10 11 11 6 4 36 63 79 78 74 68 64 76 74 83 75 59 49 35 13 10 7 5 6 16 32 38 45 66 75 73 38 53 46 68 98 98 48 45 44 72 48 94 99 98 99
12 10 11 8 10 8 4 28 74 89 75 82 70 77 80 85 76 58 51 32 14 11 6 5 8 24 38 50 57 40 78 82 41 55 65 94 98 99 42 51 32 61 55 98 98 94 92
9 9 10 14 14 11 10 4 24 82 95 96 78 87 84 87 78 61 51 26 15 11 6 6 12 30 52 56 36 40 52 70 39 47 90 90 96 100 99 56 36 51 87 98 98 95 97
11 10 11 10 13 13 10 10 6 41 86 98 91 79 86 88 84 61 53 23 17 10 6 7 21 47 51 40 46 58 83 74 59 47 90 100 98 100 87 58 43 34 91 94 100 98 95
23 18 20 19 13 16 17 14 10 11 57 96 94 89 90 93 88 64 53 23 18 8 6 10 34 59 45 50 70 79 99 74 73 59 75 99 98 100 100 66 46 47 85 81 100 99 88
20 18 16 14 17 16 25 23 20 9 17 93 95 100 98 96 91 66 50 24 18 7 8 16 50 50 52 61 99 73 68 80 78 81 64 87 98 93 100 74 52 56 80 100 99 98 98
13 14 14 20 21 18 20 27 21 20 8 62 97 99 98 97 91 70 43 30 14 6 8 22 60 56 51 71 72 80 98 92 100 84 76 93 98 100 100 76 45 59 87 98 100 95 98
16 16 19 21 26 29 37 27 25 16 17 14 95 100 96 97 94 70 40 32 11 6 12 35 51 55 44 56 86 98 100 83 100 77 81 93 100 78 98 75 54 68 83 100 98 100 99
16 15 15 16 21 27 32 44 33 17 20 10 88 98 94 97 95 64 39 29 8 8 20 48 57 41 68 84 99 95 88 73 78 57 76 94 97 89 70 55 54 71 92 96 92 98 100
13 14 15 18 20 28 40 44 38 22 19 17 90 92 96 98 95 60 34 15 8 9 22 44 49 33 92 100 100 57 69 80 94 87 69 78 97 100 49 50 65 93 85 98 100 93 95
20 20 16 12 13 19 32 38 37 29 20 20 78 95 97 98 93 56 27 11 8 10 28 52 48 51 71 85 85 80 100 100 95 100 61 55 98 100 100 95 88 100 100 98 95 99 93
16 12 10 7 5 11 15 31 30 30 24 20 60 84 96 98 97 53 20 8 7 12 31 49 62 39 49 80 81 74 82 89 100 97 95 51 96 100 98 67 92 98 100 100 98 100 100
12 10 12 8 8 5 12 16 26 26 19 17 71 80 95 98 95 45 12 7 8 11 43 51 60 30 42 53 72 94 93 92 80 86 97 79 100 100 99 87 89 86 91 97 100 99 98
28 23 10 34 73 12 7 13 22 21 17 24 40 84 96 98 87 29 8 6 7 10 31 50 62 31 36 52 60 62 83 100 98 74 85 97 100 92 94 96 74 77 75 86 97 95 95
47 16 91 100 100 78 8 14 16 16 16 18 60 90 96 98 72 16 5 5 6 8 40 51 58 29 29 44 54 42 57 100 66 93 98 75 98 100 99 94 91 63 72 73 89 100 100
34 50 100 100 100 81 8 12 12 27 15 24 74 94 97 95 53 10 4 4 6 8 35 52 50 32 32 46 52 43 78 98 92 87 100 75 66 82 76 71 76 77 95 82 92 97 88
29 85 100 100 95 51 8 11 86 92 24 73 76 94 97 85 33 6 4 4 5 8 32 46 40 27 29 37 40 74 81 83 93 76 71 76 76 64 72 71 76 80 80 87 83 70 76
39 94 98 100 100 24 8 13 100 73 70 36 97 95 94 71 17 5 3 3 4 8 25 40 44 26 28 30 23 51 58 70 77 73 81 79 75 88 84 86 94 89 86 89 86 79 75
37 86 93 96 89 12 8 94 100 51 39 99 96 97 88 46 9 4 3 3 3 6 19 34 37 33 26 26 30 50 71 73 77 85 76 81 87 78 67 67 65 80 94 93 92 95 96
42 83 88 96 47 8 84 99 96 38 54 98 98 98 82 30 7 4 3 3 3 4 12 25 32 31 30 32 35 42 72 77 76 83 83 71 59 62 62 58 62 60 72 80 87 100 100
56 51 84 49 70 99 100 100 94 71 97 99 96 96 70 23 6 4 3 3 3 4 6 20 26 18 44 37 36 55 63 70 70 74 70 64 71 66 62 61 66 72 72 67 73 89 93
53 66 21 87 100 100 100 98 100 96 98 99 98 97 50 13 6 4 3 3 4 3 4 10 28 24 12 27 35 39 42 47 77 67 62 57 61 63 71 70 68 69 63 65 75 75 81
62 51 89 100 100 100 92 99 98 99 99 99 98 81 45 12 5 4 3 3 4 4 4 4 9 36 26 12 26 26 29 32 39 56 64 54 50 53 66 69 66 78 76 64 69 85 86
40 80 98 100 91 84 100 99 96 100 98 98 97 72 38 10 5 4 3 3 4 4 4 4 5 11 22 30 15 17 19 25 24 26 46 50 33 34 43 44 46 66 70 69 61 62 65
90 94 99 68 90 100 98 98 100 98 97 98 95 67 31 10 6 5 4 3 4 4 4 4 5 6 8 20 31 22 18 17 22 30 28 28 24 30 38 50 61 70 69 71 70 61 53
92 100 99 100 99 100 99 98 97 98 98 98 91 63 26 10 6 5 4 4 4 4 4 4 4 5 6 8 12 20 28 30 31 33 32 30 33 41 49 53 51 52 56 59 65 58 76
100 100 100 98 100 98 98 98 100 94 97 98 89 55 24 10 8 6 5 5 4 4 4 5 4 5 5 6 6 7 10 10 15 15 16 17 20 24 26 31 34 36 39 40 45 53 49
99 100 100 99 100 99 98 98 96 98 100 98 88 50 24 12 10 7 6 6 6 5 5 5 5 5 5 5 5 6 7 8 9 10 11 15 18 21 22 22 25 26 27 31 37 37 37
91 98 97 95 100 99 99 93 89 98 99 97 79 44 25 14 13 9 8 7 6 6 6 5 5 5 6 5 5 5 6 6 6 7 8 10 11 12 16 19 27 32 35 38 40 43 48